Wetterdaten: Dienstag, 30.03.2021
Datum Zeit Temp. Aussen Temp. o. S. Temp +5cm Feuchte Auss Luftdruck Regen Sonnenschein Regendauer Solar Windben Empfang
30.03.2021 00:00 11,2 C 8,9 C 5,6 C 63 % 1030,9 hPa 0,0 l/m 0 min 0 min 0 W/m 0,0 km/h (0 Bft) 100,00 %
30.03.2021 00:02 11,1 C 8,9 C 5,6 C 63 % 1030,9 hPa 0,0 l/m 0 min 0 min 0 W/m 0,0 km/h (0 Bft) 95,24 %
30.03.2021 00:04 11,1 C 8,9 C 5,6 C 64 % 1030,9 hPa 0,0 l/m 0 min 0 min 0 W/m 0,0 km/h (0 Bft) 97,87 %
30.03.2021 00:08 11,0 C 8,3 C 5,6 C 66 % 1030,9 hPa 0,0 l/m 0 min 0 min 0 W/m 0,0 km/h (0 Bft) 98,94 %
30.03.2021 00:10 10,9 C 8,3 C 5,6 C 66 % 1031,0 hPa 0,0 l/m 0 min 0 min 0 W/m 0,0 km/h (0 Bft) 100,00 %
30.03.2021 00:12 10,9 C 8,3 C 5,6 C 66 % 1031,0 hPa 0,0 l/m 0 min 0 min 0 W/m 0,0 km/h (0 Bft) 97,87 %
30.03.2021 00:14 10,8 C 8,3 C 5,6 C 67 % 1030,9 hPa 0,0 l/m 0 min 0 min 0 W/m 0,0 km/h (0 Bft) 100,00 %
30.03.2021 00:16 10,8 C 8,3 C 5,0 C 67 % 1030,8 hPa 0,0 l/m 0 min 0 min 0 W/m 0,0 km/h (0 Bft) 100,00 %
30.03.2021 00:18 10,7 C 8,3 C 5,0 C 68 % 1030,9 hPa 0,0 l/m 0 min 0 min 0 W/m 0,0 km/h (0 Bft) 100,00 %
30.03.2021 00:20 10,6 C 8,3 C 5,6 C 66 % 1030,8 hPa 0,0 l/m 0 min 0 min 0 W/m 3,2 km/h (1 Bft) 100,00 %
30.03.2021 00:22 10,5 C 8,3 C 5,6 C 66 % 1030,8 hPa 0,0 l/m 0 min 0 min 0 W/m 0,0 km/h (0 Bft) 97,83 %
30.03.2021 00:24 10,4 C 8,3 C 5,6 C 66 % 1030,8 hPa 0,0 l/m 0 min 0 min 0 W/m 0,0 km/h (0 Bft) 100,00 %
30.03.2021 00:26 10,4 C 8,3 C 5,0 C 66 % 1030,8 hPa 0,0 l/m 0 min 0 min 0 W/m 0,0 km/h (0 Bft) 100,00 %
30.03.2021 00:28 10,4 C 7,8 C 5,0 C 67 % 1030,8 hPa 0,0 l/m 0 min 0 min 0 W/m 0,0 km/h (0 Bft) 100,00 %
30.03.2021 00:30 10,3 C 7,8 C 5,0 C 68 % 1030,8 hPa 0,0 l/m 0 min 0 min 0 W/m 0,0 km/h (0 Bft) 100,00 %
30.03.2021 00:32 10,3 C 7,8 C 5,0 C 69 % 1030,8 hPa 0,0 l/m 0 min 0 min 0 W/m 0,0 km/h (0 Bft) 97,92 %
30.03.2021 00:34 10,3 C 7,8 C 5,0 C 69 % 1030,8 hPa 0,0 l/m 0 min 0 min 0 W/m 0,0 km/h (0 Bft) 97,83 %
30.03.2021 00:36 10,2 C 7,8 C 5,0 C 69 % 1030,8 hPa 0,0 l/m 0 min 0 min 0 W/m 0,0 km/h (0 Bft) 97,87 %
30.03.2021 00:38 10,1 C 7,8 C 5,0 C 69 % 1030,8 hPa 0,0 l/m 0 min 0 min 0 W/m 0,0 km/h (0 Bft) 100,00 %
30.03.2021 00:40 10,0 C 7,8 C 5,0 C 69 % 1030,9 hPa 0,0 l/m 0 min 0 min 0 W/m 0,0 km/h (0 Bft) 100,00 %
30.03.2021 00:42 10,0 C 7,8 C 5,0 C 68 % 1030,9 hPa 0,0 l/m 0 min 0 min 0 W/m 0,0 km/h (0 Bft) 100,00 %
30.03.2021 00:44 9,9 C 7,8 C 4,5 C 69 % 1030,8 hPa 0,0 l/m 0 min 0 min 0 W/m 0,0 km/h (0 Bft) 100,00 %
30.03.2021 00:46 9,9 C 7,8 C 4,5 C 69 % 1030,9 hPa 0,0 l/m 0 min 0 min 0 W/m 0,0 km/h (0 Bft) 97,87 %
30.03.2021 00:48 9,8 C 7,2 C 4,5 C 69 % 1030,9 hPa 0,0 l/m 0 min 0 min 0 W/m 0,0 km/h (0 Bft) 100,00 %
30.03.2021 00:50 9,8 C 7,2 C 4,5 C 69 % 1031,0 hPa 0,0 l/m 0 min 0 min 0 W/m 0,0 km/h (0 Bft) 100,00 %
30.03.2021 00:52 9,8 C 7,2 C 4,5 C 69 % 1030,9 hPa 0,0 l/m 0 min 0 min 0 W/m 0,0 km/h (0 Bft) 100,00 %
30.03.2021 00:54 9,6 C 7,2 C 4,5 C 70 % 1031,0 hPa 0,0 l/m 0 min 0 min 0 W/m 0,0 km/h (0 Bft) 97,87 %
30.03.2021 00:56 9,6 C 7,2 C 4,5 C 70 % 1030,9 hPa 0,0 l/m 0 min 0 min 0 W/m 0,0 km/h (0 Bft) 97,83 %
30.03.2021 00:58 9,5 C 7,2 C 4,5 C 70 % 1030,9 hPa 0,0 l/m 0 min 0 min 0 W/m 0,0 km/h (0 Bft) 100,00 %
30.03.2021 01:00 9,5 C 7,2 C 4,5 C 70 % 1030,9 hPa 0,0 l/m 0 min 0 min 0 W/m 0,0 km/h (0 Bft) 100,00 %
30.03.2021 01:02 9,4 C 7,2 C 4,5 C 70 % 1030,9 hPa 0,0 l/m 0 min 0 min 0 W/m 0,0 km/h (0 Bft) 97,87 %
30.03.2021 01:04 9,4 C 7,2 C 4,5 C 70 % 1030,9 hPa 0,0 l/m 0 min 0 min 0 W/m 0,0 km/h (0 Bft) 97,37 %
30.03.2021 01:06 9,3 C 7,2 C 4,5 C 70 % 1031,0 hPa 0,0 l/m 0 min 0 min 0 W/m 0,0 km/h (0 Bft) 96,30 %
30.03.2021 01:08 9,3 C 7,2 C 4,5 C 70 % 1031,1 hPa 0,0 l/m 0 min 0 min 0 W/m 0,0 km/h (0 Bft) 97,87 %
30.03.2021 01:10 9,2 C 7,2 C 4,5 C 70 % 1031,1 hPa 0,0 l/m 0 min 0 min 0 W/m 3,2 km/h (1 Bft) 97,83 %
30.03.2021 01:12 9,1 C 7,2 C 3,9 C 71 % 1031,0 hPa 0,0 l/m 0 min 0 min 0 W/m 3,2 km/h (1 Bft) 97,87 %
30.03.2021 01:14 9,1 C 6,7 C 3,9 C 71 % 1031,0 hPa 0,0 l/m 0 min 0 min 0 W/m 0,0 km/h (0 Bft) 97,87 %
30.03.2021 01:16 9,0 C 6,7 C 3,9 C 71 % 1031,0 hPa 0,0 l/m 0 min 0 min 0 W/m 0,0 km/h (0 Bft) 95,74 %
30.03.2021 01:18 9,0 C 6,7 C 3,9 C 71 % 1031,0 hPa 0,0 l/m 0 min 0 min 0 W/m 0,0 km/h (0 Bft) 97,87 %
30.03.2021 01:20 8,9 C 6,7 C 3,9 C 72 % 1031,0 hPa 0,0 l/m 0 min 0 min 0 W/m 0,0 km/h (0 Bft) 97,87 %
30.03.2021 01:22 8,8 C 6,7 C 3,9 C 72 % 1031,0 hPa 0,0 l/m 0 min 0 min 0 W/m 0,0 km/h (0 Bft) 97,83 %
30.03.2021 01:24 8,8 C 6,7 C 4,5 C 72 % 1031,1 hPa 0,0 l/m 0 min 0 min 0 W/m 3,2 km/h (1 Bft) 97,87 %
30.03.2021 01:26 8,6 C 7,2 C 4,5 C 72 % 1031,1 hPa 0,0 l/m 0 min 0 min 0 W/m 3,2 km/h (1 Bft) 97,87 %
30.03.2021 01:28 8,6 C 7,2 C 5,0 C 72 % 1031,2 hPa 0,0 l/m 0 min 0 min 0 W/m 3,2 km/h (1 Bft) 100,00 %
30.03.2021 01:30 8,5 C 7,8 C 5,0 C 72 % 1031,1 hPa 0,0 l/m 0 min 0 min 0 W/m 6,4 km/h (2 Bft) 100,00 %
30.03.2021 01:32 8,5 C 7,8 C 5,6 C 72 % 1031,2 hPa 0,0 l/m 0 min 0 min 0 W/m 6,4 km/h (2 Bft) 100,00 %
30.03.2021 01:34 8,5 C 7,8 C 5,6 C 72 % 1031,1 hPa 0,0 l/m 0 min 0 min 0 W/m 3,2 km/h (1 Bft) 100,00 %
30.03.2021 01:36 8,5 C 7,8 C 5,6 C 72 % 1031,2 hPa 0,0 l/m 0 min 0 min 0 W/m 0,0 km/h (0 Bft) 100,00 %
30.03.2021 01:38 8,4 C 7,8 C 5,0 C 72 % 1031,2 hPa 0,0 l/m 0 min 0 min 0 W/m 3,2 km/h (1 Bft) 100,00 %
30.03.2021 01:40 8,4 C 7,8 C 5,6 C 72 % 1031,3 hPa 0,0 l/m 0 min 0 min 0 W/m 3,2 km/h (1 Bft) 100,00 %
30.03.2021 01:42 8,4 C 8,3 C 5,6 C 73 % 1031,2 hPa 0,0 l/m 0 min 0 min 0 W/m 3,2 km/h (1 Bft) 97,87 %
30.03.2021 01:44 8,5 C 8,3 C 5,6 C 73 % 1031,2 hPa 0,0 l/m 0 min 0 min 0 W/m 6,4 km/h (2 Bft) 97,87 %
30.03.2021 01:46 8,5 C 8,3 C 6,1 C 73 % 1031,2 hPa 0,0 l/m 0 min 0 min 0 W/m 12,9 km/h (3 Bft) 97,83 %
30.03.2021 01:48 8,5 C 8,3 C 6,1 C 73 % 1031,2 hPa 0,0 l/m 0 min 0 min 0 W/m 6,4 km/h (2 Bft) 100,00 %
30.03.2021 01:50 8,6 C 8,3 C 6,1 C 73 % 1031,2 hPa 0,0 l/m 0 min 0 min 0 W/m 6,4 km/h (2 Bft) 97,87 %
30.03.2021 01:52 8,6 C 8,3 C 6,1 C 73 % 1031,2 hPa 0,0 l/m 0 min 0 min 0 W/m 0,0 km/h (0 Bft) 97,87 %
30.03.2021 01:54 8,6 C 8,3 C 5,6 C 73 % 1031,2 hPa 0,0 l/m 0 min 0 min 0 W/m 3,2 km/h (1 Bft) 97,87 %
30.03.2021 01:56 8,7 C 8,3 C 5,6 C 72 % 1031,2 hPa 0,0 l/m 0 min 0 min 0 W/m 3,2 km/h (1 Bft) 97,83 %
30.03.2021 01:58 8,8 C 8,3 C 5,6 C 72 % 1031,2 hPa 0,0 l/m 0 min 0 min 0 W/m 3,2 km/h (1 Bft) 97,87 %
30.03.2021 02:00 8,8 C 8,3 C 6,1 C 72 % 1031,2 hPa 0,0 l/m 0 min 0 min 0 W/m 3,2 km/h (1 Bft) 97,92 %
30.03.2021 02:02 8,8 C 8,3 C 6,1 C 72 % 1031,2 hPa 0,0 l/m 0 min 0 min 0 W/m 6,4 km/h (2 Bft) 97,87 %
30.03.2021 02:04 8,8 C 8,3 C 6,1 C 72 % 1031,2 hPa 0,0 l/m 0 min 0 min 0 W/m 3,2 km/h (1 Bft) 97,87 %
30.03.2021 02:06 8,8 C 8,3 C 6,1 C 72 % 1031,2 hPa 0,0 l/m 0 min 0 min 0 W/m 3,2 km/h (1 Bft) 97,87 %
30.03.2021 02:08 8,9 C 8,3 C 6,1 C 72 % 1031,2 hPa 0,0 l/m 0 min 0 min 0 W/m 3,2 km/h (1 Bft) 97,44 %
30.03.2021 02:10 8,9 C 8,3 C 5,6 C 72 % 1031,2 hPa 0,0 l/m 0 min 0 min 0 W/m 3,2 km/h (1 Bft) 97,83 %
30.03.2021 02:12 8,9 C 8,3 C 5,6 C 72 % 1031,2 hPa 0,0 l/m 0 min 0 min 0 W/m 0,0 km/h (0 Bft) 97,87 %
30.03.2021 02:14 8,9 C 7,8 C 5,0 C 72 % 1031,3 hPa 0,0 l/m 0 min 0 min 0 W/m 0,0 km/h (0 Bft) 97,87 %
30.03.2021 02:16 8,9 C 7,8 C 5,0 C 72 % 1031,3 hPa 0,0 l/m 0 min 0 min 0 W/m 0,0 km/h (0 Bft) 97,87 %
30.03.2021 02:18 8,9 C 7,8 C 5,0 C 72 % 1031,2 hPa 0,0 l/m 0 min 0 min 0 W/m 0,0 km/h (0 Bft) 51,16 %
30.03.2021 02:20 8,9 C 7,8 C 4,5 C 72 % 1031,3 hPa 0,0 l/m 0 min 0 min 0 W/m 3,2 km/h (1 Bft) 97,87 %
30.03.2021 02:22 8,9 C 7,2 C 4,5 C 72 % 1031,3 hPa 0,0 l/m 0 min 0 min 0 W/m 3,2 km/h (1 Bft) 95,65 %
30.03.2021 02:24 8,9 C 7,2 C 4,5 C 72 % 1031,3 hPa 0,0 l/m 0 min 0 min 0 W/m 3,2 km/h (1 Bft) 97,87 %
30.03.2021 02:26 8,8 C 7,2 C 4,5 C 72 % 1031,3 hPa 0,0 l/m 0 min 0 min 0 W/m 3,2 km/h (1 Bft) 95,74 %
30.03.2021 02:28 8,8 C 7,2 C 4,5 C 72 % 1031,3 hPa 0,0 l/m 0 min 0 min 0 W/m 3,2 km/h (1 Bft) 97,87 %
30.03.2021 02:30 8,8 C 7,2 C 4,5 C 73 % 1031,2 hPa 0,0 l/m 0 min 0 min 0 W/m 6,4 km/h (2 Bft) 97,87 %
30.03.2021 02:32 8,8 C 7,8 C 4,5 C 73 % 1031,3 hPa 0,0 l/m 0 min 0 min 0 W/m 3,2 km/h (1 Bft) 100,00 %
30.03.2021 02:34 8,8 C 7,8 C 4,5 C 72 % 1031,2 hPa 0,0 l/m 0 min 0 min 0 W/m 3,2 km/h (1 Bft) 97,83 %
30.03.2021 02:36 8,8 C 7,8 C 5,0 C 72 % 1031,2 hPa 0,0 l/m 0 min 0 min 0 W/m 6,4 km/h (2 Bft) 95,74 %
30.03.2021 02:38 8,8 C 8,3 C 5,0 C 72 % 1031,3 hPa 0,0 l/m 0 min 0 min 0 W/m 3,2 km/h (1 Bft) 97,87 %
30.03.2021 02:40 8,8 C 8,3 C 5,0 C 72 % 1031,3 hPa 0,0 l/m 0 min 0 min 0 W/m 3,2 km/h (1 Bft) 97,87 %
30.03.2021 02:42 8,8 C 8,3 C 5,6 C 72 % 1031,3 hPa 0,0 l/m 0 min 0 min 0 W/m 3,2 km/h (1 Bft) 98,11 %
30.03.2021 02:44 8,8 C 8,3 C 5,0 C 72 % 1031,3 hPa 0,0 l/m 0 min 0 min 0 W/m 3,2 km/h (1 Bft) 95,65 %
30.03.2021 02:46 8,8 C 7,8 C 5,0 C 72 % 1031,3 hPa 0,0 l/m 0 min 0 min 0 W/m 0,0 km/h (0 Bft) 92,68 %
30.03.2021 02:48 8,8 C 7,2 C 5,0 C 72 % 1031,3 hPa 0,0 l/m 0 min 0 min 0 W/m 0,0 km/h (0 Bft) 93,62 %
30.03.2021 02:50 8,8 C 7,2 C 4,5 C 72 % 1031,3 hPa 0,0 l/m 0 min 0 min 0 W/m 0,0 km/h (0 Bft) 91,49 %
30.03.2021 02:52 8,8 C 7,2 C 4,5 C 72 % 1031,3 hPa 0,0 l/m 0 min 0 min 0 W/m 0,0 km/h (0 Bft) 89,36 %
30.03.2021 02:54 8,8 C 6,7 C 4,5 C 73 % 1031,3 hPa 0,0 l/m 0 min 0 min 0 W/m 0,0 km/h (0 Bft) 93,62 %
30.03.2021 02:56 8,7 C 6,7 C 4,5 C 73 % 1031,4 hPa 0,0 l/m 0 min 0 min 0 W/m 0,0 km/h (0 Bft) 93,62 %
30.03.2021 02:58 8,6 C 6,7 C 3,9 C 73 % 1031,4 hPa 0,0 l/m 0 min 0 min 0 W/m 0,0 km/h (0 Bft) 93,48 %
30.03.2021 03:00 8,6 C 6,7 C 3,9 C 73 % 1031,4 hPa 0,0 l/m 0 min 0 min 0 W/m 0,0 km/h (0 Bft) 95,74 %
30.03.2021 03:02 8,6 C 6,7 C 3,9 C 73 % 1031,3 hPa 0,0 l/m 0 min 0 min 0 W/m 0,0 km/h (0 Bft) 90,74 %
30.03.2021 03:04 8,5 C 6,7 C 3,9 C 73 % 1031,2 hPa 0,0 l/m 0 min 0 min 0 W/m 0,0 km/h (0 Bft) 93,62 %
30.03.2021 03:06 8,5 C 6,7 C 3,9 C 73 % 1031,2 hPa 0,0 l/m 0 min 0 min 0 W/m 0,0 km/h (0 Bft) 91,49 %
30.03.2021 03:08 8,4 C 6,7 C 3,9 C 73 % 1031,3 hPa 0,0 l/m 0 min 0 min 0 W/m 0,0 km/h (0 Bft) 91,30 %
30.03.2021 03:10 8,4 C 6,7 C 3,9 C 73 % 1031,3 hPa 0,0 l/m 0 min 0 min 0 W/m 0,0 km/h (0 Bft) 95,00 %
30.03.2021 03:12 8,3 C 6,7 C 3,9 C 73 % 1031,3 hPa 0,0 l/m 0 min 0 min 0 W/m 0,0 km/h (0 Bft) 93,62 %
30.03.2021 03:14 8,3 C 6,1 C 3,9 C 74 % 1031,3 hPa 0,0 l/m 0 min 0 min 0 W/m 0,0 km/h (0 Bft) 93,62 %
30.03.2021 03:16 8,3 C 6,1 C 3,4 C 74 % 1031,3 hPa 0,0 l/m 0 min 0 min 0 W/m 0,0 km/h (0 Bft) 95,74 %
30.03.2021 03:18 8,2 C 6,1 C 3,4 C 74 % 1031,3 hPa 0,0 l/m 0 min 0 min 0 W/m 0,0 km/h (0 Bft) 95,74 %
30.03.2021 03:20 8,2 C 6,1 C 3,4 C 74 % 1031,2 hPa 0,0 l/m 0 min 0 min 0 W/m 0,0 km/h (0 Bft) 93,62 %
30.03.2021 03:22 8,1 C 6,1 C 3,4 C 75 % 1031,4 hPa 0,0 l/m 0 min 0 min 0 W/m 0,0 km/h (0 Bft) 97,83 %
30.03.2021 03:24 8,1 C 5,6 C 3,4 C 75 % 1031,4 hPa 0,0 l/m 0 min 0 min 0 W/m 0,0 km/h (0 Bft) 97,87 %
30.03.2021 03:26 8,0 C 5,6 C 3,4 C 75 % 1031,4 hPa 0,0 l/m 0 min 0 min 0 W/m 0,0 km/h (0 Bft) 95,74 %
30.03.2021 03:28 8,0 C 5,6 C 3,4 C 75 % 1031,3 hPa 0,0 l/m 0 min 0 min 0 W/m 0,0 km/h (0 Bft) 97,87 %
30.03.2021 03:30 7,9 C 5,6 C 3,4 C 75 % 1031,3 hPa 0,0 l/m 0 min 0 min 0 W/m 0,0 km/h (0 Bft) 93,62 %
30.03.2021 03:32 7,9 C 5,6 C 3,4 C 75 % 1031,3 hPa 0,0 l/m 0 min 0 min 0 W/m 0,0 km/h (0 Bft) 100,00 %
30.03.2021 03:34 7,8 C 5,6 C 2,8 C 76 % 1031,3 hPa 0,0 l/m 0 min 0 min 0 W/m 0,0 km/h (0 Bft) 97,87 %
30.03.2021 03:36 7,8 C 5,6 C 2,8 C 75 % 1031,3 hPa 0,0 l/m 0 min 0 min 0 W/m 0,0 km/h (0 Bft) 60,78 %
30.03.2021 03:38 7,7 C 5,6 C 2,8 C 75 % 1031,3 hPa 0,0 l/m 0 min 0 min 0 W/m 0,0 km/h (0 Bft) 97,87 %
30.03.2021 03:40 7,6 C 5,0 C 2,8 C 76 % 1031,3 hPa 0,0 l/m 0 min 0 min 0 W/m 0,0 km/h (0 Bft) 95,74 %
30.03.2021 03:42 7,5 C 5,0 C 2,8 C 76 % 1031,3 hPa 0,0 l/m 0 min 0 min 0 W/m 0,0 km/h (0 Bft) 95,65 %
30.03.2021 03:44 7,5 C 5,0 C 2,8 C 76 % 1031,3 hPa 0,0 l/m 0 min 0 min 0 W/m 0,0 km/h (0 Bft) 97,87 %
30.03.2021 03:46 7,4 C 5,0 C 2,8 C 76 % 1031,3 hPa 0,0 l/m 0 min 0 min 0 W/m 0,0 km/h (0 Bft) 97,56 %
30.03.2021 03:48 7,4 C 5,0 C 2,8 C 76 % 1031,3 hPa 0,0 l/m 0 min 0 min 0 W/m 0,0 km/h (0 Bft) 95,74 %
30.03.2021 03:50 7,3 C 5,0 C 2,8 C 77 % 1031,3 hPa 0,0 l/m 0 min 0 min 0 W/m 0,0 km/h (0 Bft) 97,87 %
30.03.2021 03:52 7,3 C 5,0 C 2,8 C 77 % 1031,2 hPa 0,0 l/m 0 min 0 min 0 W/m 0,0 km/h (0 Bft) 95,74 %
30.03.2021 03:54 7,1 C 5,0 C 2,8 C 77 % 1031,2 hPa 0,0 l/m 0 min 0 min 0 W/m 0,0 km/h (0 Bft) 100,00 %
30.03.2021 03:56 7,1 C 5,0 C 2,8 C 77 % 1031,2 hPa 0,0 l/m 0 min 0 min 0 W/m 0,0 km/h (0 Bft) 100,00 %
30.03.2021 03:58 7,0 C 5,0 C 2,8 C 77 % 1031,2 hPa 0,0 l/m 0 min 0 min 0 W/m 0,0 km/h (0 Bft) 95,65 %
30.03.2021 04:00 6,9 C 5,0 C 2,8 C 78 % 1031,2 hPa 0,0 l/m 0 min 0 min 0 W/m 0,0 km/h (0 Bft) 97,87 %
30.03.2021 04:02 6,9 C 5,0 C 2,8 C 78 % 1031,2 hPa 0,0 l/m 0 min 0 min 0 W/m 0,0 km/h (0 Bft) 100,00 %
30.03.2021 04:04 6,8 C 5,0 C 2,8 C 78 % 1031,1 hPa 0,0 l/m 0 min 0 min 0 W/m 0,0 km/h (0 Bft) 100,00 %
30.03.2021 04:06 6,8 C 4,4 C 2,8 C 78 % 1031,2 hPa 0,0 l/m 0 min 0 min 0 W/m 0,0 km/h (0 Bft) 98,08 %
30.03.2021 04:08 6,7 C 4,4 C 2,8 C 78 % 1031,2 hPa 0,0 l/m 0 min 0 min 0 W/m 0,0 km/h (0 Bft) 97,87 %
30.03.2021 04:10 6,6 C 4,4 C 2,8 C 78 % 1031,2 hPa 0,0 l/m 0 min 0 min 0 W/m 0,0 km/h (0 Bft) 100,00 %
30.03.2021 04:12 6,6 C 4,4 C 2,8 C 79 % 1031,2 hPa 0,0 l/m 0 min 0 min 0 W/m 0,0 km/h (0 Bft) 98,11 %
30.03.2021 04:14 6,5 C 4,4 C 2,3 C 79 % 1031,2 hPa 0,0 l/m 0 min 0 min 0 W/m 0,0 km/h (0 Bft) 97,87 %
30.03.2021 04:16 6,4 C 4,4 C 2,3 C 79 % 1031,1 hPa 0,0 l/m 0 min 0 min 0 W/m 0,0 km/h (0 Bft) 100,00 %
30.03.2021 04:18 6,4 C 4,4 C 2,3 C 79 % 1031,1 hPa 0,0 l/m 0 min 0 min 0 W/m 0,0 km/h (0 Bft) 97,87 %
30.03.2021 04:20 6,4 C 4,4 C 2,3 C 79 % 1031,1 hPa 0,0 l/m 0 min 0 min 0 W/m 0,0 km/h (0 Bft) 97,87 %
30.03.2021 04:22 6,3 C 4,4 C 2,3 C 79 % 1031,1 hPa 0,0 l/m 0 min 0 min 0 W/m 0,0 km/h (0 Bft) 100,00 %
30.03.2021 04:24 6,3 C 5,0 C 2,8 C 80 % 1031,1 hPa 0,0 l/m 0 min 0 min 0 W/m 0,0 km/h (0 Bft) 97,87 %
30.03.2021 04:26 6,2 C 5,0 C 2,8 C 80 % 1031,1 hPa 0,0 l/m 0 min 0 min 0 W/m 0,0 km/h (0 Bft) 100,00 %
30.03.2021 04:28 6,2 C 5,0 C 2,8 C 80 % 1031,2 hPa 0,0 l/m 0 min 0 min 0 W/m 3,2 km/h (1 Bft) 100,00 %
30.03.2021 04:30 6,2 C 5,6 C 2,8 C 80 % 1031,2 hPa 0,0 l/m 0 min 0 min 0 W/m 3,2 km/h (1 Bft) 97,87 %
30.03.2021 04:32 6,2 C 5,6 C 2,8 C 80 % 1031,2 hPa 0,0 l/m 0 min 0 min 0 W/m 6,4 km/h (2 Bft) 95,74 %
30.03.2021 04:34 6,3 C 6,1 C 3,4 C 81 % 1031,2 hPa 0,0 l/m 0 min 0 min 0 W/m 3,2 km/h (1 Bft) 95,74 %
30.03.2021 04:36 6,3 C 6,1 C 3,4 C 81 % 1031,2 hPa 0,0 l/m 0 min 0 min 0 W/m 6,4 km/h (2 Bft) 97,87 %
30.03.2021 04:38 6,3 C 6,1 C 3,4 C 81 % 1031,2 hPa 0,0 l/m 0 min 0 min 0 W/m 6,4 km/h (2 Bft) 97,87 %
30.03.2021 04:40 6,3 C 6,1 C 3,9 C 81 % 1031,2 hPa 0,0 l/m 0 min 0 min 0 W/m 6,4 km/h (2 Bft) 95,65 %
30.03.2021 04:42 6,3 C 6,1 C 3,9 C 80 % 1031,2 hPa 0,0 l/m 0 min 0 min 0 W/m 6,4 km/h (2 Bft) 97,87 %
30.03.2021 04:44 6,4 C 6,7 C 3,9 C 80 % 1031,2 hPa 0,0 l/m 0 min 0 min 0 W/m 6,4 km/h (2 Bft) 97,87 %
30.03.2021 04:46 6,4 C 6,7 C 3,9 C 80 % 1031,1 hPa 0,0 l/m 0 min 0 min 0 W/m 6,4 km/h (2 Bft) 97,87 %
30.03.2021 04:48 6,5 C 6,7 C 3,9 C 80 % 1031,1 hPa 0,0 l/m 0 min 0 min 0 W/m 3,2 km/h (1 Bft) 97,87 %
30.03.2021 04:50 6,5 C 6,7 C 3,9 C 80 % 1031,1 hPa 0,0 l/m 0 min 0 min 0 W/m 3,2 km/h (1 Bft) 93,62 %
30.03.2021 04:52 6,6 C 6,1 C 3,9 C 80 % 1031,2 hPa 0,0 l/m 0 min 0 min 0 W/m 3,2 km/h (1 Bft) 97,83 %
30.03.2021 04:54 6,6 C 6,1 C 3,9 C 80 % 1031,2 hPa 0,0 l/m 0 min 0 min 0 W/m 3,2 km/h (1 Bft) 97,87 %
30.03.2021 04:56 6,6 C 6,1 C 3,9 C 79 % 1031,1 hPa 0,0 l/m 0 min 0 min 0 W/m 6,4 km/h (2 Bft) 97,87 %
30.03.2021 04:58 6,6 C 6,7 C 3,9 C 79 % 1031,1 hPa 0,0 l/m 0 min 0 min 0 W/m 6,4 km/h (2 Bft) 97,87 %
30.03.2021 05:00 6,7 C 6,7 C 4,5 C 79 % 1031,1 hPa 0,0 l/m 0 min 0 min 0 W/m 6,4 km/h (2 Bft) 97,87 %
30.03.2021 05:02 6,8 C 6,7 C 4,5 C 79 % 1031,1 hPa 0,0 l/m 0 min 0 min 0 W/m 6,4 km/h (2 Bft) 97,87 %
30.03.2021 05:04 6,8 C 6,7 C 4,5 C 79 % 1031,1 hPa 0,0 l/m 0 min 0 min 0 W/m 3,2 km/h (1 Bft) 97,83 %
30.03.2021 05:06 6,8 C 6,7 C 4,5 C 78 % 1031,1 hPa 0,0 l/m 0 min 0 min 0 W/m 3,2 km/h (1 Bft) 95,74 %
30.03.2021 05:08 6,9 C 6,7 C 3,9 C 78 % 1031,1 hPa 0,0 l/m 0 min 0 min 0 W/m 3,2 km/h (1 Bft) 97,87 %
30.03.2021 05:10 6,9 C 6,7 C 3,9 C 78 % 1031,0 hPa 0,0 l/m 0 min 0 min 0 W/m 6,4 km/h (2 Bft) 97,87 %
30.03.2021 05:12 6,9 C 6,7 C 3,9 C 78 % 1031,1 hPa 0,0 l/m 0 min 0 min 0 W/m 9,7 km/h (2 Bft) 100,00 %
30.03.2021 05:14 6,9 C 6,7 C 3,9 C 78 % 1031,1 hPa 0,0 l/m 0 min 0 min 0 W/m 3,2 km/h (1 Bft) 100,00 %
30.03.2021 05:16 6,9 C 6,7 C 3,9 C 78 % 1031,1 hPa 0,0 l/m 0 min 0 min 0 W/m 6,4 km/h (2 Bft) 100,00 %
30.03.2021 05:18 6,9 C 6,7 C 3,9 C 78 % 1031,1 hPa 0,0 l/m 0 min 0 min 0 W/m 3,2 km/h (1 Bft) 100,00 %
30.03.2021 05:20 7,0 C 6,7 C 3,9 C 78 % 1031,1 hPa 0,0 l/m 0 min 0 min 0 W/m 6,4 km/h (2 Bft) 100,00 %
30.03.2021 05:22 7,0 C 6,1 C 3,9 C 78 % 1031,1 hPa 0,0 l/m 0 min 0 min 0 W/m 6,4 km/h (2 Bft) 97,87 %
30.03.2021 05:24 7,0 C 6,1 C 3,9 C 78 % 1031,1 hPa 0,0 l/m 0 min 0 min 0 W/m 3,2 km/h (1 Bft) 100,00 %
30.03.2021 05:26 7,0 C 6,1 C 3,9 C 78 % 1031,1 hPa 0,0 l/m 0 min 0 min 0 W/m 6,4 km/h (2 Bft) 100,00 %
30.03.2021 05:28 7,0 C 6,1 C 3,9 C 78 % 1031,2 hPa 0,0 l/m 0 min 0 min 0 W/m 6,4 km/h (2 Bft) 100,00 %
30.03.2021 05:30 7,0 C 6,1 C 3,9 C 78 % 1031,1 hPa 0,0 l/m 0 min 0 min 0 W/m 6,4 km/h (2 Bft) 100,00 %
30.03.2021 05:32 7,0 C 6,1 C 3,9 C 78 % 1031,2 hPa 0,0 l/m 0 min 0 min 0 W/m 12,9 km/h (3 Bft) 95,74 %
30.03.2021 05:34 7,0 C 6,1 C 3,9 C 78 % 1031,2 hPa 0,0 l/m 0 min 0 min 0 W/m 12,9 km/h (3 Bft) 100,00 %
30.03.2021 05:36 7,0 C 6,1 C 3,9 C 78 % 1031,2 hPa 0,0 l/m 0 min 0 min 0 W/m 16,1 km/h (3 Bft) 100,00 %
30.03.2021 05:38 7,0 C 6,1 C 3,9 C 78 % 1031,1 hPa 0,0 l/m 0 min 0 min 0 W/m 12,9 km/h (3 Bft) 100,00 %
30.03.2021 05:40 7,0 C 6,1 C 3,9 C 78 % 1031,2 hPa 0,0 l/m 0 min 0 min 0 W/m 6,4 km/h (2 Bft) 100,00 %
30.03.2021 05:42 7,0 C 6,7 C 3,9 C 78 % 1031,2 hPa 0,0 l/m 0 min 0 min 0 W/m 6,4 km/h (2 Bft) 97,87 %
30.03.2021 05:44 7,0 C 6,1 C 3,9 C 78 % 1031,1 hPa 0,0 l/m 0 min 0 min 0 W/m 6,4 km/h (2 Bft) 100,00 %
30.03.2021 05:46 7,0 C 6,1 C 3,9 C 78 % 1031,2 hPa 0,0 l/m 0 min 0 min 0 W/m 3,2 km/h (1 Bft) 100,00 %
30.03.2021 05:48 7,0 C 6,1 C 3,9 C 77 % 1031,1 hPa 0,0 l/m 0 min 0 min 0 W/m 3,2 km/h (1 Bft) 97,87 %
30.03.2021 05:50 7,0 C 6,1 C 3,9 C 78 % 1031,1 hPa 0,0 l/m 0 min 0 min 0 W/m 3,2 km/h (1 Bft) 100,00 %
30.03.2021 05:52 7,0 C 6,1 C 3,9 C 78 % 1031,1 hPa 0,0 l/m 0 min 0 min 0 W/m 6,4 km/h (2 Bft) 100,00 %
30.03.2021 05:54 7,0 C 6,1 C 3,9 C 78 % 1031,1 hPa 0,0 l/m 0 min 0 min 0 W/m 6,4 km/h (2 Bft) 100,00 %
30.03.2021 05:56 7,0 C 6,1 C 3,9 C 78 % 1031,1 hPa 0,0 l/m 0 min 0 min 0 W/m 3,2 km/h (1 Bft) 100,00 %
30.03.2021 05:58 7,0 C 6,1 C 3,9 C 77 % 1031,1 hPa 0,0 l/m 0 min 0 min 0 W/m 3,2 km/h (1 Bft) 100,00 %
30.03.2021 06:00 7,0 C 6,1 C 3,9 C 77 % 1031,1 hPa 0,0 l/m 0 min 0 min 0 W/m 0,0 km/h (0 Bft) 100,00 %
30.03.2021 06:02 7,0 C 6,1 C 3,9 C 77 % 1031,1 hPa 0,0 l/m 0 min 0 min 0 W/m 3,2 km/h (1 Bft) 100,00 %
30.03.2021 06:04 6,9 C 6,1 C 3,9 C 77 % 1031,1 hPa 0,0 l/m 0 min 0 min 0 W/m 3,2 km/h (1 Bft) 97,83 %
30.03.2021 06:08 6,9 C 6,1 C 3,9 C 77 % 1031,1 hPa 0,0 l/m 0 min 0 min 0 W/m 6,4 km/h (2 Bft) 100,00 %
30.03.2021 06:10 6,9 C 6,1 C 3,9 C 77 % 1031,2 hPa 0,0 l/m 0 min 0 min 0 W/m 6,4 km/h (2 Bft) 100,00 %
30.03.2021 06:12 6,9 C 6,1 C 3,9 C 78 % 1031,2 hPa 0,0 l/m 0 min 0 min 0 W/m 6,4 km/h (2 Bft) 100,00 %
30.03.2021 06:14 6,9 C 6,1 C 3,9 C 77 % 1031,2 hPa 0,0 l/m 0 min 0 min 0 W/m 6,4 km/h (2 Bft) 100,00 %
30.03.2021 06:16 6,9 C 6,1 C 3,9 C 77 % 1031,2 hPa 0,0 l/m 0 min 0 min 0 W/m 6,4 km/h (2 Bft) 98,18 %
30.03.2021 06:18 6,9 C 6,1 C 3,9 C 78 % 1031,2 hPa 0,0 l/m 0 min 0 min 0 W/m 3,2 km/h (1 Bft) 100,00 %
30.03.2021 06:20 6,8 C 6,1 C 3,9 C 78 % 1031,2 hPa 0,0 l/m 0 min 0 min 0 W/m 6,4 km/h (2 Bft) 97,56 %
30.03.2021 06:22 6,8 C 6,1 C 3,9 C 78 % 1031,3 hPa 0,0 l/m 0 min 0 min 0 W/m 6,4 km/h (2 Bft) 100,00 %
30.03.2021 06:24 6,8 C 6,1 C 3,9 C 78 % 1031,3 hPa 0,0 l/m 0 min 0 min 0 W/m 6,4 km/h (2 Bft) 100,00 %
30.03.2021 06:26 6,8 C 6,1 C 3,9 C 78 % 1031,3 hPa 0,0 l/m 0 min 0 min 0 W/m 6,4 km/h (2 Bft) 97,87 %
30.03.2021 06:28 6,8 C 6,1 C 3,4 C 78 % 1031,2 hPa 0,0 l/m 0 min 0 min 0 W/m 6,4 km/h (2 Bft) 97,87 %
30.03.2021 06:30 6,8 C 5,6 C 3,4 C 78 % 1031,2 hPa 0,0 l/m 0 min 0 min 0 W/m 3,2 km/h (1 Bft) 95,65 %
30.03.2021 06:32 6,8 C 5,6 C 3,4 C 78 % 1031,2 hPa 0,0 l/m 0 min 0 min 0 W/m 0,0 km/h (0 Bft) 94,34 %
30.03.2021 06:34 6,7 C 5,6 C 3,4 C 78 % 1031,3 hPa 0,0 l/m 0 min 0 min 0 W/m 3,2 km/h (1 Bft) 95,74 %
30.03.2021 06:36 6,7 C 5,6 C 3,4 C 78 % 1031,3 hPa 0,0 l/m 0 min 0 min 0 W/m 3,2 km/h (1 Bft) 97,87 %
30.03.2021 06:38 6,6 C 5,6 C 2,8 C 78 % 1031,3 hPa 0,0 l/m 0 min 0 min 0 W/m 3,2 km/h (1 Bft) 100,00 %
30.03.2021 06:40 6,6 C 5,6 C 3,4 C 78 % 1031,3 hPa 0,0 l/m 0 min 0 min 0 W/m 3,2 km/h (1 Bft) 95,65 %
30.03.2021 06:42 6,6 C 5,6 C 3,4 C 78 % 1031,3 hPa 0,0 l/m 0 min 0 min 0 W/m 3,2 km/h (1 Bft) 95,74 %
30.03.2021 06:44 6,5 C 5,6 C 3,4 C 79 % 1031,3 hPa 0,0 l/m 0 min 0 min 0 W/m 3,2 km/h (1 Bft) 93,62 %
30.03.2021 06:46 6,5 C 5,6 C 3,4 C 79 % 1031,3 hPa 0,0 l/m 0 min 0 min 0 W/m 3,2 km/h (1 Bft) 95,74 %
30.03.2021 06:48 6,5 C 5,6 C 3,4 C 79 % 1031,3 hPa 0,0 l/m 0 min 0 min 0 W/m 12,9 km/h (3 Bft) 91,49 %
30.03.2021 06:50 6,5 C 5,6 C 3,4 C 79 % 1031,3 hPa 0,0 l/m 0 min 0 min 0 W/m 6,4 km/h (2 Bft) 93,62 %
30.03.2021 06:52 6,4 C 5,6 C 3,4 C 79 % 1031,4 hPa 0,0 l/m 0 min 0 min 0 W/m 3,2 km/h (1 Bft) 95,65 %
30.03.2021 06:54 6,4 C 5,6 C 3,4 C 79 % 1031,4 hPa 0,0 l/m 0 min 0 min 0 W/m 6,4 km/h (2 Bft) 95,74 %
30.03.2021 06:56 6,4 C 5,6 C 3,4 C 79 % 1031,4 hPa 0,0 l/m 0 min 0 min 0 W/m 6,4 km/h (2 Bft) 91,49 %
30.03.2021 06:58 6,4 C 5,6 C 3,4 C 79 % 1031,4 hPa 0,0 l/m 0 min 0 min 0 W/m 3,2 km/h (1 Bft) 93,62 %
30.03.2021 07:00 6,4 C 5,6 C 3,4 C 79 % 1031,4 hPa 0,0 l/m 0 min 0 min 0 W/m 3,2 km/h (1 Bft) 95,74 %
30.03.2021 07:02 6,4 C 5,6 C 3,4 C 79 % 1031,5 hPa 0,0 l/m 0 min 0 min 0 W/m 3,2 km/h (1 Bft) 93,62 %
30.03.2021 07:04 6,4 C 5,0 C 2,8 C 80 % 1031,4 hPa 0,0 l/m 0 min 0 min 0 W/m 0,0 km/h (0 Bft) 95,00 %
30.03.2021 07:06 6,4 C 5,0 C 2,8 C 80 % 1031,5 hPa 0,0 l/m 0 min 0 min 0 W/m 0,0 km/h (0 Bft) 97,87 %
30.03.2021 07:08 6,3 C 5,0 C 2,8 C 80 % 1031,5 hPa 0,0 l/m 0 min 0 min 0 W/m 3,2 km/h (1 Bft) 95,74 %
30.03.2021 07:10 6,3 C 5,0 C 2,8 C 80 % 1031,5 hPa 0,0 l/m 0 min 0 min 0 W/m 0,0 km/h (0 Bft) 93,62 %
30.03.2021 07:12 6,3 C 5,0 C 2,8 C 80 % 1031,5 hPa 0,0 l/m 0 min 0 min 0 W/m 6,4 km/h (2 Bft) 93,62 %
30.03.2021 07:14 6,3 C 5,0 C 2,8 C 80 % 1031,5 hPa 0,0 l/m 0 min 0 min 0 W/m 3,2 km/h (1 Bft) 95,74 %
30.03.2021 07:16 6,2 C 5,0 C 2,8 C 80 % 1031,5 hPa 0,0 l/m 0 min 0 min 4 W/m 3,2 km/h (1 Bft) 96,15 %
30.03.2021 07:18 6,2 C 5,0 C 2,8 C 80 % 1031,5 hPa 0,0 l/m 0 min 0 min 5 W/m 3,2 km/h (1 Bft) 93,62 %
30.03.2021 07:20 6,2 C 5,0 C 2,8 C 80 % 1031,6 hPa 0,0 l/m 0 min 0 min 6 W/m 3,2 km/h (1 Bft) 97,56 %
30.03.2021 07:22 6,1 C 5,0 C 2,8 C 80 % 1031,6 hPa 0,0 l/m 0 min 0 min 7 W/m 0,0 km/h (0 Bft) 93,62 %
30.03.2021 07:24 6,1 C 5,0 C 2,8 C 80 % 1031,7 hPa 0,0 l/m 0 min 0 min 8 W/m 6,4 km/h (2 Bft) 95,74 %
30.03.2021 07:26 6,1 C 5,0 C 2,8 C 80 % 1031,7 hPa 0,0 l/m 0 min 0 min 9 W/m 6,4 km/h (2 Bft) 100,00 %
30.03.2021 07:28 6,1 C 5,6 C 2,8 C 81 % 1031,7 hPa 0,0 l/m 0 min 0 min 10 W/m 6,4 km/h (2 Bft) 100,00 %
30.03.2021 07:30 6,1 C 5,6 C 3,4 C 81 % 1031,7 hPa 0,0 l/m 0 min 0 min 11 W/m 9,7 km/h (2 Bft) 100,00 %
30.03.2021 07:32 6,0 C 5,6 C 3,4 C 81 % 1031,7 hPa 0,0 l/m 0 min 0 min 12 W/m 16,1 km/h (3 Bft) 97,87 %
30.03.2021 07:34 6,0 C 5,6 C 3,4 C 81 % 1031,7 hPa 0,0 l/m 0 min 0 min 12 W/m 16,1 km/h (3 Bft) 100,00 %
30.03.2021 07:36 6,1 C 5,6 C 3,4 C 82 % 1031,8 hPa 0,0 l/m 0 min 0 min 14 W/m 6,4 km/h (2 Bft) 100,00 %
30.03.2021 07:38 6,1 C 5,6 C 3,4 C 82 % 1031,7 hPa 0,0 l/m 0 min 0 min 15 W/m 6,4 km/h (2 Bft) 100,00 %
30.03.2021 07:40 6,1 C 5,6 C 3,4 C 82 % 1031,7 hPa 0,0 l/m 0 min 0 min 16 W/m 6,4 km/h (2 Bft) 100,00 %
30.03.2021 07:42 6,1 C 5,6 C 3,4 C 82 % 1031,7 hPa 0,0 l/m 0 min 0 min 17 W/m 6,4 km/h (2 Bft) 93,62 %
30.03.2021 07:44 6,1 C 5,6 C 3,4 C 82 % 1031,8 hPa 0,0 l/m 0 min 0 min 18 W/m 6,4 km/h (2 Bft) 97,87 %
30.03.2021 07:46 6,1 C 5,6 C 3,4 C 82 % 1031,8 hPa 0,0 l/m 0 min 0 min 19 W/m 6,4 km/h (2 Bft) 97,87 %
30.03.2021 07:48 6,1 C 5,6 C 3,4 C 82 % 1031,8 hPa 0,0 l/m 0 min 0 min 19 W/m 3,2 km/h (1 Bft) 97,87 %
30.03.2021 07:50 6,2 C 5,6 C 3,4 C 82 % 1031,8 hPa 0,0 l/m 0 min 0 min 21 W/m 6,4 km/h (2 Bft) 100,00 %
30.03.2021 07:52 6,2 C 5,6 C 3,4 C 82 % 1031,8 hPa 0,0 l/m 0 min 0 min 21 W/m 3,2 km/h (1 Bft) 97,83 %
30.03.2021 07:54 6,2 C 5,6 C 3,4 C 82 % 1031,9 hPa 0,0 l/m 0 min 0 min 22 W/m 6,4 km/h (2 Bft) 97,87 %
30.03.2021 07:56 6,3 C 5,6 C 3,4 C 82 % 1031,9 hPa 0,0 l/m 0 min 0 min 23 W/m 0,0 km/h (0 Bft) 97,87 %
30.03.2021 07:58 6,2 C 5,6 C 3,4 C 82 % 1031,9 hPa 0,0 l/m 0 min 0 min 25 W/m 3,2 km/h (1 Bft) 97,87 %
30.03.2021 08:00 6,3 C 5,6 C 3,4 C 82 % 1031,9 hPa 0,0 l/m 0 min 0 min 25 W/m 3,2 km/h (1 Bft) 97,87 %
30.03.2021 08:02 6,3 C 5,6 C 3,4 C 82 % 1031,9 hPa 0,0 l/m 0 min 0 min 25 W/m 6,4 km/h (2 Bft) 98,08 %
30.03.2021 08:04 6,3 C 5,6 C 3,4 C 82 % 1031,9 hPa 0,0 l/m 0 min 0 min 26 W/m 3,2 km/h (1 Bft) 48,78 %
30.03.2021 08:06 6,3 C 5,6 C 3,4 C 82 % 1031,9 hPa 0,0 l/m 0 min 0 min 26 W/m 3,2 km/h (1 Bft) 96,36 %
30.03.2021 08:08 6,3 C 5,6 C 3,4 C 82 % 1031,9 hPa 0,0 l/m 0 min 0 min 27 W/m 0,0 km/h (0 Bft) 95,83 %
30.03.2021 08:10 6,3 C 5,6 C 3,4 C 82 % 1032,0 hPa 0,0 l/m 0 min 0 min 28 W/m 0,0 km/h (0 Bft) 100,00 %
30.03.2021 08:12 6,3 C 5,6 C 3,4 C 82 % 1032,0 hPa 0,0 l/m 0 min 0 min 28 W/m 3,2 km/h (1 Bft) 95,83 %
30.03.2021 08:14 6,3 C 6,1 C 3,4 C 82 % 1032,0 hPa 0,0 l/m 0 min 0 min 30 W/m 3,2 km/h (1 Bft) 97,87 %
30.03.2021 08:16 6,3 C 6,1 C 3,9 C 82 % 1032,0 hPa 0,0 l/m 0 min 0 min 30 W/m 3,2 km/h (1 Bft) 95,74 %
30.03.2021 08:18 6,4 C 6,1 C 3,9 C 82 % 1032,0 hPa 0,0 l/m 0 min 0 min 31 W/m 6,4 km/h (2 Bft) 97,87 %
30.03.2021 08:20 6,4 C 6,1 C 3,9 C 82 % 1032,0 hPa 0,0 l/m 0 min 0 min 32 W/m 6,4 km/h (2 Bft) 97,87 %
30.03.2021 08:22 6,4 C 6,1 C 3,9 C 82 % 1032,0 hPa 0,0 l/m 0 min 0 min 32 W/m 3,2 km/h (1 Bft) 97,87 %
30.03.2021 08:24 6,4 C 6,1 C 3,9 C 82 % 1032,1 hPa 0,0 l/m 0 min 0 min 33 W/m 3,2 km/h (1 Bft) 97,87 %
30.03.2021 08:26 6,4 C 6,1 C 3,9 C 82 % 1032,1 hPa 0,0 l/m 0 min 0 min 33 W/m 3,2 km/h (1 Bft) 97,87 %
30.03.2021 08:28 6,4 C 6,1 C 3,9 C 82 % 1032,0 hPa 0,0 l/m 0 min 0 min 34 W/m 6,4 km/h (2 Bft) 97,83 %
30.03.2021 08:30 6,5 C 6,7 C 3,9 C 82 % 1032,1 hPa 0,0 l/m 0 min 0 min 35 W/m 6,4 km/h (2 Bft) 98,18 %
30.03.2021 08:32 6,5 C 6,7 C 3,9 C 82 % 1032,0 hPa 0,0 l/m 0 min 0 min 35 W/m 3,2 km/h (1 Bft) 94,59 %
30.03.2021 08:34 6,5 C 6,7 C 3,9 C 82 % 1032,1 hPa 0,0 l/m 0 min 0 min 36 W/m 6,4 km/h (2 Bft) 97,96 %
30.03.2021 08:36 6,6 C 6,7 C 3,9 C 82 % 1032,1 hPa 0,0 l/m 0 min 0 min 37 W/m 3,2 km/h (1 Bft) 95,74 %
30.03.2021 08:38 6,6 C 6,7 C 4,5 C 82 % 1032,0 hPa 0,0 l/m 0 min 0 min 37 W/m 3,2 km/h (1 Bft) 97,83 %
30.03.2021 08:40 6,6 C 6,7 C 4,5 C 82 % 1032,1 hPa 0,0 l/m 0 min 0 min 38 W/m 12,9 km/h (3 Bft) 98,15 %
30.03.2021 08:42 6,7 C 6,7 C 4,5 C 82 % 1032,1 hPa 0,0 l/m 0 min 0 min 39 W/m 6,4 km/h (2 Bft) 97,30 %
30.03.2021 08:44 6,8 C 7,2 C 4,5 C 82 % 1032,1 hPa 0,0 l/m 0 min 0 min 39 W/m 6,4 km/h (2 Bft) 97,92 %
30.03.2021 08:46 6,9 C 7,2 C 4,5 C 82 % 1032,2 hPa 0,0 l/m 0 min 0 min 40 W/m 6,4 km/h (2 Bft) 95,92 %
30.03.2021 08:48 6,9 C 7,2 C 4,5 C 82 % 1032,1 hPa 0,0 l/m 0 min 0 min 40 W/m 12,9 km/h (3 Bft) 97,87 %
30.03.2021 08:50 7,0 C 7,2 C 4,5 C 82 % 1032,1 hPa 0,0 l/m 0 min 0 min 40 W/m 6,4 km/h (2 Bft) 93,48 %
30.03.2021 08:52 7,0 C 7,2 C 4,5 C 82 % 1032,2 hPa 0,0 l/m 0 min 0 min 41 W/m 3,2 km/h (1 Bft) 95,74 %
30.03.2021 08:54 7,1 C 7,2 C 5,0 C 82 % 1032,2 hPa 0,0 l/m 0 min 0 min 42 W/m 12,9 km/h (3 Bft) 96,36 %
30.03.2021 08:56 7,2 C 7,8 C 5,0 C 81 % 1032,2 hPa 0,0 l/m 0 min 0 min 42 W/m 6,4 km/h (2 Bft) 97,37 %
30.03.2021 08:58 7,3 C 7,8 C 5,0 C 81 % 1032,2 hPa 0,0 l/m 0 min 0 min 43 W/m 6,4 km/h (2 Bft) 95,74 %
30.03.2021 09:00 7,4 C 7,8 C 5,0 C 81 % 1032,2 hPa 0,0 l/m 0 min 0 min 44 W/m 12,9 km/h (3 Bft) 95,83 %
30.03.2021 09:02 7,5 C 7,8 C 5,0 C 81 % 1032,2 hPa 0,0 l/m 0 min 0 min 44 W/m 12,9 km/h (3 Bft) 97,83 %
30.03.2021 09:04 7,5 C 7,8 C 5,0 C 81 % 1032,2 hPa 0,0 l/m 0 min 0 min 46 W/m 16,1 km/h (3 Bft) 97,87 %
30.03.2021 09:06 7,6 C 8,3 C 5,6 C 81 % 1032,3 hPa 0,0 l/m 0 min 0 min 46 W/m 19,3 km/h (3 Bft) 97,87 %
30.03.2021 09:08 7,8 C 8,3 C 5,6 C 81 % 1032,2 hPa 0,0 l/m 0 min 0 min 46 W/m 12,9 km/h (3 Bft) 95,74 %
30.03.2021 09:10 7,9 C 8,3 C 5,6 C 80 % 1032,2 hPa 0,0 l/m 0 min 0 min 47 W/m 16,1 km/h (3 Bft) 96,36 %
30.03.2021 09:12 8,0 C 8,3 C 5,6 C 80 % 1032,2 hPa 0,0 l/m 0 min 0 min 47 W/m 16,1 km/h (3 Bft) 100,00 %
30.03.2021 09:14 8,1 C 8,3 C 5,6 C 79 % 1032,2 hPa 0,0 l/m 0 min 0 min 47 W/m 12,9 km/h (3 Bft) 97,92 %
30.03.2021 09:16 8,2 C 8,3 C 6,1 C 79 % 1032,2 hPa 0,0 l/m 0 min 0 min 50 W/m 12,9 km/h (3 Bft) 93,62 %
30.03.2021 09:18 8,3 C 8,9 C 6,1 C 79 % 1032,2 hPa 0,0 l/m 0 min 0 min 128 W/m 12,9 km/h (3 Bft) 95,74 %
30.03.2021 09:20 8,4 C 8,9 C 6,1 C 79 % 1032,1 hPa 0,0 l/m 2 min 0 min 261 W/m 19,3 km/h (3 Bft) 54,35 %
30.03.2021 09:22 8,5 C 8,9 C 6,1 C 78 % 1032,2 hPa 0,0 l/m 2 min 0 min 312 W/m 12,9 km/h (3 Bft) 97,87 %
30.03.2021 09:24 8,6 C 8,9 C 6,1 C 78 % 1032,2 hPa 0,0 l/m 2 min 0 min 321 W/m 16,1 km/h (3 Bft) 97,87 %
30.03.2021 09:26 8,7 C 8,9 C 6,1 C 78 % 1032,2 hPa 0,0 l/m 2 min 0 min 326 W/m 6,4 km/h (2 Bft) 97,83 %
30.03.2021 09:28 8,9 C 9,4 C 6,1 C 78 % 1032,3 hPa 0,0 l/m 2 min 0 min 333 W/m 12,9 km/h (3 Bft) 98,15 %
30.03.2021 09:30 9,0 C 9,4 C 6,7 C 77 % 1032,3 hPa 0,0 l/m 2 min 0 min 337 W/m 16,1 km/h (3 Bft) 93,62 %
30.03.2021 09:32 9,2 C 10,6 C 6,7 C 77 % 1032,3 hPa 0,0 l/m 2 min 0 min 345 W/m 12,9 km/h (3 Bft) 97,37 %
30.03.2021 09:34 9,4 C 11,7 C 6,7 C 76 % 1032,3 hPa 0,0 l/m 2 min 0 min 351 W/m 6,4 km/h (2 Bft) 95,74 %
30.03.2021 09:36 9,5 C 12,8 C 6,7 C 76 % 1032,3 hPa 0,0 l/m 2 min 0 min 355 W/m 6,4 km/h (2 Bft) 95,83 %
30.03.2021 09:38 9,7 C 13,9 C 6,7 C 76 % 1032,3 hPa 0,0 l/m 2 min 0 min 357 W/m 6,4 km/h (2 Bft) 95,74 %
30.03.2021 09:40 9,9 C 13,9 C 6,7 C 76 % 1032,3 hPa 0,0 l/m 2 min 0 min 356 W/m 16,1 km/h (3 Bft) 93,62 %
30.03.2021 09:42 10,0 C 13,9 C 7,3 C 74 % 1032,3 hPa 0,0 l/m 2 min 0 min 366 W/m 6,4 km/h (2 Bft) 95,92 %
30.03.2021 09:44 10,1 C 13,9 C 7,3 C 74 % 1032,3 hPa 0,0 l/m 2 min 0 min 381 W/m 6,4 km/h (2 Bft) 91,49 %
30.03.2021 09:46 10,4 C 13,3 C 7,3 C 74 % 1032,3 hPa 0,0 l/m 2 min 0 min 386 W/m 12,9 km/h (3 Bft) 91,67 %
30.03.2021 09:48 10,5 C 13,3 C 7,8 C 73 % 1032,3 hPa 0,0 l/m 2 min 0 min 395 W/m 6,4 km/h (2 Bft) 95,65 %
30.03.2021 09:50 10,7 C 13,9 C 8,4 C 73 % 1032,3 hPa 0,0 l/m 2 min 0 min 402 W/m 3,2 km/h (1 Bft) 97,87 %
30.03.2021 09:52 10,9 C 13,3 C 8,9 C 73 % 1032,3 hPa 0,0 l/m 2 min 0 min 408 W/m 6,4 km/h (2 Bft) 95,12 %
30.03.2021 09:54 11,1 C 13,3 C 10,0 C 72 % 1032,3 hPa 0,0 l/m 2 min 0 min 411 W/m 6,4 km/h (2 Bft) 95,83 %
30.03.2021 09:56 11,3 C 13,9 C 10,6 C 71 % 1032,3 hPa 0,0 l/m 2 min 0 min 416 W/m 6,4 km/h (2 Bft) 95,92 %
30.03.2021 09:58 11,5 C 15,0 C 11,1 C 71 % 1032,3 hPa 0,0 l/m 2 min 0 min 421 W/m 6,4 km/h (2 Bft) 95,74 %
30.03.2021 10:00 11,7 C 15,6 C 11,7 C 70 % 1032,3 hPa 0,0 l/m 2 min 0 min 427 W/m 12,9 km/h (3 Bft) 95,74 %
30.03.2021 10:02 11,9 C 16,1 C 12,3 C 69 % 1032,3 hPa 0,0 l/m 2 min 0 min 433 W/m 6,4 km/h (2 Bft) 95,92 %
30.03.2021 10:04 12,0 C 17,2 C 12,8 C 69 % 1032,3 hPa 0,0 l/m 2 min 0 min 437 W/m 6,4 km/h (2 Bft) 93,75 %
30.03.2021 10:06 12,3 C 17,8 C 13,4 C 69 % 1032,3 hPa 0,0 l/m 2 min 0 min 441 W/m 6,4 km/h (2 Bft) 97,87 %
30.03.2021 10:08 12,4 C 18,3 C 14,5 C 68 % 1032,3 hPa 0,0 l/m 2 min 0 min 447 W/m 6,4 km/h (2 Bft) 97,96 %
30.03.2021 10:10 12,6 C 18,9 C 15,0 C 68 % 1032,3 hPa 0,0 l/m 2 min 0 min 452 W/m 6,4 km/h (2 Bft) 97,87 %
30.03.2021 10:12 12,8 C 18,3 C 15,6 C 68 % 1032,3 hPa 0,0 l/m 2 min 0 min 457 W/m 12,9 km/h (3 Bft) 97,14 %
30.03.2021 10:14 13,0 C 17,8 C 16,1 C 67 % 1032,3 hPa 0,0 l/m 2 min 0 min 437 W/m 6,4 km/h (2 Bft) 95,74 %
30.03.2021 10:16 13,2 C 17,8 C 16,1 C 67 % 1032,3 hPa 0,0 l/m 2 min 0 min 442 W/m 12,9 km/h (3 Bft) 97,83 %
30.03.2021 10:18 13,3 C 18,3 C 16,7 C 67 % 1032,3 hPa 0,0 l/m 2 min 0 min 473 W/m 6,4 km/h (2 Bft) 96,23 %
30.03.2021 10:20 13,5 C 18,3 C 17,3 C 67 % 1032,3 hPa 0,0 l/m 2 min 0 min 476 W/m 12,9 km/h (3 Bft) 97,87 %
30.03.2021 10:22 13,6 C 18,9 C 16,7 C 66 % 1032,3 hPa 0,0 l/m 2 min 0 min 483 W/m 12,9 km/h (3 Bft) 95,74 %
30.03.2021 10:24 13,8 C 18,9 C 16,7 C 66 % 1032,2 hPa 0,0 l/m 2 min 0 min 489 W/m 6,4 km/h (2 Bft) 97,87 %
30.03.2021 10:26 13,9 C 18,9 C 16,7 C 65 % 1032,2 hPa 0,0 l/m 2 min 0 min 490 W/m 6,4 km/h (2 Bft) 97,56 %
30.03.2021 10:28 14,0 C 18,9 C 15,6 C 65 % 1032,2 hPa 0,0 l/m 2 min 0 min 420 W/m 12,9 km/h (3 Bft) 97,83 %
30.03.2021 10:30 14,2 C 18,3 C 15,0 C 64 % 1032,3 hPa 0,0 l/m 2 min 0 min 448 W/m 9,7 km/h (2 Bft) 97,87 %
30.03.2021 10:32 14,2 C 18,9 C 14,5 C 64 % 1032,2 hPa 0,0 l/m 2 min 0 min 504 W/m 6,4 km/h (2 Bft) 97,87 %
30.03.2021 10:34 14,3 C 18,9 C 15,0 C 64 % 1032,2 hPa 0,0 l/m 2 min 0 min 506 W/m 12,9 km/h (3 Bft) 97,87 %
30.03.2021 10:36 14,4 C 17,8 C 15,0 C 63 % 1032,3 hPa 0,0 l/m 2 min 0 min 486 W/m 12,9 km/h (3 Bft) 97,87 %
30.03.2021 10:38 14,5 C 17,8 C 15,6 C 63 % 1032,3 hPa 0,0 l/m 2 min 0 min 320 W/m 12,9 km/h (3 Bft) 98,28 %
30.03.2021 10:40 14,5 C 17,8 C 16,1 C 63 % 1032,3 hPa 0,0 l/m 0 min 0 min 215 W/m 9,7 km/h (2 Bft) 97,87 %
30.03.2021 10:42 14,6 C 18,3 C 16,7 C 63 % 1032,3 hPa 0,0 l/m 2 min 0 min 261 W/m 12,9 km/h (3 Bft) 97,14 %
30.03.2021 10:44 14,7 C 18,3 C 17,8 C 63 % 1032,3 hPa 0,0 l/m 2 min 0 min 414 W/m 12,9 km/h (3 Bft) 95,74 %
30.03.2021 10:46 14,8 C 18,3 C 18,4 C 63 % 1032,3 hPa 0,0 l/m 2 min 0 min 292 W/m 12,9 km/h (3 Bft) 95,74 %
30.03.2021 10:48 14,8 C 18,3 C 18,9 C 63 % 1032,3 hPa 0,0 l/m 2 min 0 min 323 W/m 12,9 km/h (3 Bft) 100,00 %
30.03.2021 10:50 14,9 C 18,3 C 18,4 C 63 % 1032,4 hPa 0,0 l/m 2 min 0 min 533 W/m 12,9 km/h (3 Bft) 97,83 %
30.03.2021 10:52 15,0 C 17,8 C 18,4 C 62 % 1032,4 hPa 0,0 l/m 2 min 0 min 509 W/m 9,7 km/h (2 Bft) 95,74 %
30.03.2021 10:54 15,1 C 17,8 C 18,9 C 62 % 1032,4 hPa 0,0 l/m 2 min 0 min 445 W/m 12,9 km/h (3 Bft) 97,87 %
30.03.2021 10:56 15,1 C 17,8 C 18,9 C 61 % 1032,4 hPa 0,0 l/m 2 min 0 min 503 W/m 12,9 km/h (3 Bft) 97,87 %
30.03.2021 10:58 15,2 C 17,8 C 17,8 C 59 % 1032,3 hPa 0,0 l/m 2 min 0 min 261 W/m 16,1 km/h (3 Bft) 97,87 %
30.03.2021 11:00 15,3 C 17,8 C 17,8 C 59 % 1032,3 hPa 0,0 l/m 2 min 0 min 369 W/m 6,4 km/h (2 Bft) 100,00 %
30.03.2021 11:02 15,4 C 17,8 C 16,7 C 58 % 1032,3 hPa 0,0 l/m 2 min 0 min 307 W/m 9,7 km/h (2 Bft) 97,83 %
30.03.2021 11:04 15,5 C 17,8 C 16,1 C 58 % 1032,3 hPa 0,0 l/m 2 min 0 min 499 W/m 16,1 km/h (3 Bft) 100,00 %
30.03.2021 11:06 15,5 C 17,8 C 15,6 C 58 % 1032,3 hPa 0,0 l/m 2 min 0 min 483 W/m 12,9 km/h (3 Bft) 97,87 %
30.03.2021 11:08 15,6 C 17,8 C 16,1 C 58 % 1032,3 hPa 0,0 l/m 2 min 0 min 545 W/m 12,9 km/h (3 Bft) 97,87 %
30.03.2021 11:10 15,8 C 17,8 C 15,6 C 57 % 1032,3 hPa 0,0 l/m 2 min 0 min 534 W/m 16,1 km/h (3 Bft) 95,74 %
30.03.2021 11:12 15,8 C 17,8 C 15,6 C 57 % 1032,3 hPa 0,0 l/m 2 min 0 min 505 W/m 16,1 km/h (3 Bft) 97,87 %
30.03.2021 11:14 15,9 C 18,3 C 16,1 C 57 % 1032,2 hPa 0,0 l/m 2 min 0 min 600 W/m 16,1 km/h (3 Bft) 97,83 %
30.03.2021 11:16 16,0 C 18,9 C 17,3 C 57 % 1032,3 hPa 0,0 l/m 2 min 0 min 610 W/m 12,9 km/h (3 Bft) 97,87 %
30.03.2021 11:18 16,1 C 18,9 C 18,4 C 57 % 1032,3 hPa 0,0 l/m 2 min 0 min 613 W/m 12,9 km/h (3 Bft) 97,87 %
30.03.2021 11:20 16,3 C 19,4 C 18,9 C 57 % 1032,3 hPa 0,0 l/m 2 min 0 min 619 W/m 12,9 km/h (3 Bft) 97,87 %
30.03.2021 11:22 16,4 C 19,4 C 20,0 C 57 % 1032,3 hPa 0,0 l/m 2 min 0 min 622 W/m 9,7 km/h (2 Bft) 97,87 %
30.03.2021 11:24 16,5 C 19,4 C 20,0 C 56 % 1032,3 hPa 0,0 l/m 2 min 0 min 609 W/m 12,9 km/h (3 Bft) 97,87 %
30.03.2021 11:26 16,6 C 19,4 C 20,6 C 56 % 1032,3 hPa 0,0 l/m 2 min 0 min 452 W/m 16,1 km/h (3 Bft) 97,83 %
30.03.2021 11:28 16,8 C 19,4 C 20,6 C 55 % 1032,3 hPa 0,0 l/m 2 min 0 min 515 W/m 16,1 km/h (3 Bft) 98,31 %
30.03.2021 11:30 16,9 C 19,4 C 21,1 C 55 % 1032,3 hPa 0,0 l/m 2 min 0 min 412 W/m 16,1 km/h (3 Bft) 97,87 %
30.03.2021 11:32 17,0 C 19,4 C 21,7 C 55 % 1032,3 hPa 0,0 l/m 2 min 0 min 494 W/m 12,9 km/h (3 Bft) 95,74 %
30.03.2021 11:34 17,1 C 19,4 C 22,8 C 55 % 1032,3 hPa 0,0 l/m 2 min 0 min 468 W/m 12,9 km/h (3 Bft) 97,87 %
30.03.2021 11:36 17,2 C 19,4 C 23,4 C 55 % 1032,3 hPa 0,0 l/m 2 min 0 min 356 W/m 12,9 km/h (3 Bft) 97,83 %
30.03.2021 11:38 17,4 C 19,4 C 23,9 C 54 % 1032,3 hPa 0,0 l/m 2 min 0 min 304 W/m 16,1 km/h (3 Bft) 97,87 %
30.03.2021 11:40 17,4 C 20,0 C 25,0 C 55 % 1032,2 hPa 0,0 l/m 2 min 0 min 458 W/m 16,1 km/h (3 Bft) 97,87 %
30.03.2021 11:42 17,5 C 20,6 C 26,1 C 54 % 1032,3 hPa 0,0 l/m 2 min 0 min 656 W/m 12,9 km/h (3 Bft) 95,74 %
30.03.2021 11:44 17,6 C 20,6 C 25,6 C 54 % 1032,2 hPa 0,0 l/m 2 min 0 min 662 W/m 19,3 km/h (3 Bft) 97,87 %
30.03.2021 11:46 17,8 C 21,1 C 25,6 C 53 % 1032,2 hPa 0,0 l/m 2 min 0 min 665 W/m 12,9 km/h (3 Bft) 97,87 %
30.03.2021 11:48 17,9 C 21,7 C 25,6 C 53 % 1032,3 hPa 0,0 l/m 2 min 0 min 668 W/m 12,9 km/h (3 Bft) 97,83 %
30.03.2021 11:50 18,1 C 22,2 C 26,1 C 53 % 1032,2 hPa 0,0 l/m 2 min 0 min 671 W/m 12,9 km/h (3 Bft) 97,87 %
30.03.2021 11:52 18,2 C 22,8 C 27,3 C 52 % 1032,2 hPa 0,0 l/m 2 min 0 min 675 W/m 12,9 km/h (3 Bft) 97,87 %
30.03.2021 11:54 18,3 C 22,8 C 27,8 C 51 % 1032,2 hPa 0,0 l/m 2 min 0 min 679 W/m 9,7 km/h (2 Bft) 97,87 %
30.03.2021 11:56 18,5 C 22,8 C 27,8 C 50 % 1032,2 hPa 0,0 l/m 2 min 0 min 682 W/m 12,9 km/h (3 Bft) 93,62 %
30.03.2021 11:58 18,6 C 22,2 C 27,8 C 49 % 1032,2 hPa 0,0 l/m 2 min 0 min 685 W/m 16,1 km/h (3 Bft) 95,65 %
30.03.2021 12:00 18,7 C 22,8 C 27,8 C 49 % 1032,2 hPa 0,0 l/m 2 min 0 min 689 W/m 16,1 km/h (3 Bft) 97,87 %
30.03.2021 12:02 18,8 C 23,3 C 28,9 C 49 % 1032,1 hPa 0,0 l/m 2 min 0 min 692 W/m 6,4 km/h (2 Bft) 97,87 %
30.03.2021 12:04 19,0 C 22,8 C 28,9 C 48 % 1032,2 hPa 0,0 l/m 2 min 0 min 695 W/m 16,1 km/h (3 Bft) 93,62 %
30.03.2021 12:08 19,2 C 22,8 C 28,9 C 48 % 1032,2 hPa 0,0 l/m 4 min 0 min 697 W/m 19,3 km/h (3 Bft) 97,56 %
30.03.2021 12:10 19,3 C 23,3 C 27,8 C 48 % 1032,2 hPa 0,0 l/m 2 min 0 min 701 W/m 12,9 km/h (3 Bft) 97,87 %
30.03.2021 12:12 19,4 C 23,3 C 28,4 C 47 % 1032,2 hPa 0,0 l/m 2 min 0 min 705 W/m 12,9 km/h (3 Bft) 97,87 %
30.03.2021 12:14 19,5 C 23,3 C 27,8 C 47 % 1032,2 hPa 0,0 l/m 2 min 0 min 706 W/m 12,9 km/h (3 Bft) 95,65 %
30.03.2021 12:16 19,6 C 23,9 C 27,8 C 47 % 1032,2 hPa 0,0 l/m 2 min 0 min 709 W/m 12,9 km/h (3 Bft) 97,87 %
30.03.2021 12:18 19,7 C 24,4 C 28,9 C 46 % 1032,2 hPa 0,0 l/m 2 min 0 min 711 W/m 12,9 km/h (3 Bft) 97,87 %
30.03.2021 12:20 19,8 C 24,4 C 28,9 C 47 % 1032,2 hPa 0,0 l/m 2 min 0 min 714 W/m 16,1 km/h (3 Bft) 97,87 %
30.03.2021 12:22 19,9 C 25,0 C 29,5 C 47 % 1032,1 hPa 0,0 l/m 2 min 0 min 718 W/m 6,4 km/h (2 Bft) 95,74 %
30.03.2021 12:24 20,0 C 25,6 C 30,0 C 46 % 1032,2 hPa 0,0 l/m 2 min 0 min 720 W/m 9,7 km/h (2 Bft) 97,87 %
30.03.2021 12:26 20,1 C 25,0 C 29,5 C 45 % 1032,1 hPa 0,0 l/m 2 min 0 min 720 W/m 16,1 km/h (3 Bft) 95,65 %
30.03.2021 12:28 20,2 C 25,0 C 28,9 C 45 % 1032,1 hPa 0,0 l/m 2 min 0 min 727 W/m 16,1 km/h (3 Bft) 97,87 %
30.03.2021 12:30 20,3 C 25,0 C 29,5 C 44 % 1032,1 hPa 0,0 l/m 2 min 0 min 729 W/m 12,9 km/h (3 Bft) 97,87 %
30.03.2021 12:32 20,4 C 25,6 C 30,0 C 45 % 1032,1 hPa 0,0 l/m 2 min 0 min 734 W/m 6,4 km/h (2 Bft) 97,87 %
30.03.2021 12:34 20,5 C 25,6 C 30,0 C 45 % 1032,0 hPa 0,0 l/m 2 min 0 min 737 W/m 12,9 km/h (3 Bft) 97,87 %
30.03.2021 12:36 20,5 C 25,6 C 30,0 C 45 % 1032,1 hPa 0,0 l/m 2 min 0 min 738 W/m 9,7 km/h (2 Bft) 97,87 %
30.03.2021 12:38 20,5 C 25,0 C 29,5 C 45 % 1032,0 hPa 0,0 l/m 2 min 0 min 740 W/m 19,3 km/h (3 Bft) 97,83 %
30.03.2021 12:40 20,6 C 25,0 C 28,9 C 46 % 1032,0 hPa 0,0 l/m 2 min 0 min 734 W/m 16,1 km/h (3 Bft) 100,00 %
30.03.2021 12:42 20,7 C 25,6 C 29,5 C 45 % 1032,1 hPa 0,0 l/m 2 min 0 min 743 W/m 12,9 km/h (3 Bft) 100,00 %
30.03.2021 12:44 20,8 C 25,0 C 28,4 C 44 % 1032,0 hPa 0,0 l/m 2 min 0 min 740 W/m 16,1 km/h (3 Bft) 100,00 %
30.03.2021 12:46 20,8 C 25,6 C 29,5 C 44 % 1032,0 hPa 0,0 l/m 2 min 0 min 739 W/m 12,9 km/h (3 Bft) 97,87 %
30.03.2021 12:48 20,9 C 25,6 C 28,9 C 44 % 1032,0 hPa 0,0 l/m 2 min 0 min 743 W/m 16,1 km/h (3 Bft) 100,00 %
30.03.2021 12:50 20,9 C 26,1 C 28,9 C 44 % 1031,9 hPa 0,0 l/m 2 min 0 min 744 W/m 12,9 km/h (3 Bft) 100,00 %
30.03.2021 12:52 21,0 C 25,6 C 28,9 C 44 % 1031,9 hPa 0,0 l/m 2 min 0 min 744 W/m 12,9 km/h (3 Bft) 100,00 %
30.03.2021 12:54 21,0 C 26,1 C 28,9 C 44 % 1031,9 hPa 0,0 l/m 2 min 0 min 745 W/m 9,7 km/h (2 Bft) 97,87 %
30.03.2021 12:56 21,1 C 27,2 C 28,9 C 44 % 1031,8 hPa 0,0 l/m 2 min 0 min 745 W/m 6,4 km/h (2 Bft) 100,00 %
30.03.2021 12:58 21,2 C 26,7 C 28,4 C 44 % 1031,8 hPa 0,0 l/m 2 min 0 min 742 W/m 12,9 km/h (3 Bft) 100,00 %
30.03.2021 13:00 21,3 C 26,7 C 27,3 C 44 % 1031,8 hPa 0,0 l/m 2 min 0 min 746 W/m 12,9 km/h (3 Bft) 100,00 %
30.03.2021 13:02 21,4 C 27,2 C 26,1 C 44 % 1031,7 hPa 0,0 l/m 2 min 0 min 750 W/m 6,4 km/h (2 Bft) 100,00 %
30.03.2021 13:04 21,4 C 26,1 C 24,5 C 43 % 1031,7 hPa 0,0 l/m 2 min 0 min 751 W/m 16,1 km/h (3 Bft) 100,00 %
30.03.2021 13:06 21,4 C 25,0 C 22,8 C 42 % 1031,7 hPa 0,0 l/m 2 min 0 min 754 W/m 19,3 km/h (3 Bft) 100,00 %
30.03.2021 13:08 21,4 C 25,0 C 21,7 C 42 % 1031,7 hPa 0,0 l/m 2 min 0 min 752 W/m 12,9 km/h (3 Bft) 100,00 %
30.03.2021 13:10 21,4 C 25,6 C 21,1 C 42 % 1031,6 hPa 0,0 l/m 2 min 0 min 752 W/m 16,1 km/h (3 Bft) 100,00 %
30.03.2021 13:12 21,4 C 25,0 C 20,6 C 43 % 1031,6 hPa 0,0 l/m 2 min 0 min 755 W/m 12,9 km/h (3 Bft) 100,00 %
30.03.2021 13:14 21,4 C 25,0 C 20,6 C 42 % 1031,6 hPa 0,0 l/m 2 min 0 min 758 W/m 12,9 km/h (3 Bft) 100,00 %
30.03.2021 13:16 21,4 C 26,1 C 21,7 C 42 % 1031,6 hPa 0,0 l/m 2 min 0 min 762 W/m 9,7 km/h (2 Bft) 100,00 %
30.03.2021 13:18 21,5 C 26,1 C 22,8 C 42 % 1031,6 hPa 0,0 l/m 2 min 0 min 763 W/m 16,1 km/h (3 Bft) 100,00 %
30.03.2021 13:20 21,5 C 25,6 C 22,3 C 42 % 1031,5 hPa 0,0 l/m 2 min 0 min 764 W/m 9,7 km/h (2 Bft) 97,87 %
30.03.2021 13:22 21,5 C 26,1 C 22,8 C 41 % 1031,5 hPa 0,0 l/m 2 min 0 min 764 W/m 12,9 km/h (3 Bft) 97,87 %
30.03.2021 13:24 21,6 C 26,1 C 22,8 C 41 % 1031,5 hPa 0,0 l/m 2 min 0 min 764 W/m 16,1 km/h (3 Bft) 100,00 %
30.03.2021 13:26 21,6 C 25,6 C 22,3 C 41 % 1031,4 hPa 0,0 l/m 2 min 0 min 765 W/m 19,3 km/h (3 Bft) 100,00 %
30.03.2021 13:28 21,5 C 25,6 C 22,3 C 41 % 1031,4 hPa 0,0 l/m 2 min 0 min 766 W/m 16,1 km/h (3 Bft) 100,00 %
30.03.2021 13:30 21,5 C 26,1 C 22,3 C 42 % 1031,4 hPa 0,0 l/m 2 min 0 min 765 W/m 12,9 km/h (3 Bft) 100,00 %
30.03.2021 13:32 21,6 C 26,7 C 21,7 C 41 % 1031,4 hPa 0,0 l/m 2 min 0 min 765 W/m 12,9 km/h (3 Bft) 100,00 %
30.03.2021 13:34 21,6 C 26,7 C 22,8 C 40 % 1031,3 hPa 0,0 l/m 2 min 0 min 766 W/m 6,4 km/h (2 Bft) 100,00 %
30.03.2021 13:36 21,7 C 27,2 C 23,9 C 40 % 1031,3 hPa 0,0 l/m 2 min 0 min 766 W/m 12,9 km/h (3 Bft) 100,00 %
30.03.2021 13:38 21,8 C 27,2 C 25,0 C 40 % 1031,3 hPa 0,0 l/m 2 min 0 min 765 W/m 12,9 km/h (3 Bft) 100,00 %
30.03.2021 13:40 21,8 C 26,7 C 23,9 C 39 % 1031,2 hPa 0,0 l/m 2 min 0 min 765 W/m 19,3 km/h (3 Bft) 100,00 %
30.03.2021 13:42 21,9 C 26,7 C 22,8 C 40 % 1031,3 hPa 0,0 l/m 2 min 0 min 765 W/m 12,9 km/h (3 Bft) 100,00 %
30.03.2021 13:44 21,9 C 26,7 C 22,3 C 40 % 1031,2 hPa 0,0 l/m 2 min 0 min 767 W/m 12,9 km/h (3 Bft) 100,00 %
30.03.2021 13:46 21,9 C 26,7 C 20,6 C 40 % 1031,2 hPa 0,0 l/m 2 min 0 min 766 W/m 16,1 km/h (3 Bft) 100,00 %
30.03.2021 13:48 21,9 C 26,7 C 20,6 C 40 % 1031,2 hPa 0,0 l/m 2 min 0 min 766 W/m 16,1 km/h (3 Bft) 100,00 %
30.03.2021 13:50 21,9 C 26,1 C 20,0 C 40 % 1031,2 hPa 0,0 l/m 2 min 0 min 763 W/m 19,3 km/h (3 Bft) 100,00 %
30.03.2021 13:52 22,0 C 26,7 C 19,5 C 40 % 1031,2 hPa 0,0 l/m 2 min 0 min 763 W/m 16,1 km/h (3 Bft) 100,00 %
30.03.2021 13:54 22,0 C 26,7 C 19,5 C 39 % 1031,2 hPa 0,0 l/m 2 min 0 min 761 W/m 12,9 km/h (3 Bft) 100,00 %
30.03.2021 13:56 22,0 C 26,7 C 19,5 C 38 % 1031,2 hPa 0,0 l/m 2 min 0 min 762 W/m 12,9 km/h (3 Bft) 100,00 %
30.03.2021 13:58 22,1 C 27,8 C 19,5 C 39 % 1031,2 hPa 0,0 l/m 2 min 0 min 763 W/m 16,1 km/h (3 Bft) 100,00 %
30.03.2021 14:00 22,1 C 28,3 C 19,5 C 39 % 1031,1 hPa 0,0 l/m 2 min 0 min 764 W/m 12,9 km/h (3 Bft) 97,87 %
30.03.2021 14:02 22,2 C 28,3 C 19,5 C 39 % 1031,1 hPa 0,0 l/m 2 min 0 min 761 W/m 16,1 km/h (3 Bft) 100,00 %
30.03.2021 14:04 22,3 C 27,8 C 19,5 C 39 % 1031,1 hPa 0,0 l/m 2 min 0 min 758 W/m 16,1 km/h (3 Bft) 100,00 %
30.03.2021 14:06 22,3 C 28,3 C 19,5 C 38 % 1031,1 hPa 0,0 l/m 2 min 0 min 758 W/m 12,9 km/h (3 Bft) 100,00 %
30.03.2021 14:08 22,4 C 28,3 C 19,5 C 37 % 1031,1 hPa 0,0 l/m 2 min 0 min 760 W/m 12,9 km/h (3 Bft) 100,00 %
30.03.2021 14:10 22,5 C 28,9 C 19,5 C 37 % 1031,1 hPa 0,0 l/m 2 min 0 min 758 W/m 6,4 km/h (2 Bft) 97,87 %
30.03.2021 14:12 22,6 C 29,4 C 19,5 C 37 % 1031,1 hPa 0,0 l/m 2 min 0 min 754 W/m 12,9 km/h (3 Bft) 100,00 %
30.03.2021 14:14 22,7 C 28,9 C 19,5 C 39 % 1031,0 hPa 0,0 l/m 2 min 0 min 756 W/m 6,4 km/h (2 Bft) 100,00 %
30.03.2021 14:16 22,8 C 28,9 C 19,5 C 37 % 1031,1 hPa 0,0 l/m 2 min 0 min 755 W/m 12,9 km/h (3 Bft) 97,87 %
30.03.2021 14:18 22,9 C 29,4 C 19,5 C 37 % 1031,0 hPa 0,0 l/m 2 min 0 min 754 W/m 12,9 km/h (3 Bft) 97,87 %
30.03.2021 14:20 22,9 C 30,0 C 19,5 C 38 % 1030,9 hPa 0,0 l/m 2 min 0 min 753 W/m 6,4 km/h (2 Bft) 97,83 %
30.03.2021 14:22 23,0 C 29,4 C 19,5 C 38 % 1031,0 hPa 0,0 l/m 2 min 0 min 750 W/m 12,9 km/h (3 Bft) 97,87 %
30.03.2021 14:24 23,0 C 28,9 C 19,5 C 38 % 1030,9 hPa 0,0 l/m 2 min 0 min 750 W/m 16,1 km/h (3 Bft) 97,87 %
30.03.2021 14:26 23,0 C 30,0 C 19,5 C 39 % 1030,8 hPa 0,0 l/m 2 min 0 min 750 W/m 6,4 km/h (2 Bft) 93,62 %
30.03.2021 14:28 23,0 C 29,4 C 19,5 C 38 % 1030,9 hPa 0,0 l/m 2 min 0 min 748 W/m 12,9 km/h (3 Bft) 95,74 %
30.03.2021 14:30 23,0 C 30,0 C 19,5 C 38 % 1030,8 hPa 0,0 l/m 2 min 0 min 748 W/m 12,9 km/h (3 Bft) 95,74 %
30.03.2021 14:32 23,0 C 29,4 C 19,5 C 37 % 1030,8 hPa 0,0 l/m 2 min 0 min 748 W/m 12,9 km/h (3 Bft) 94,29 %
30.03.2021 14:34 23,1 C 29,4 C 19,5 C 38 % 1030,8 hPa 0,0 l/m 2 min 0 min 745 W/m 12,9 km/h (3 Bft) 95,74 %
30.03.2021 14:38 23,2 C 30,0 C 19,5 C 37 % 1030,7 hPa 0,0 l/m 4 min 0 min 743 W/m 12,9 km/h (3 Bft) 94,62 %
30.03.2021 14:40 23,2 C 28,9 C 19,5 C 37 % 1030,7 hPa 0,0 l/m 2 min 0 min 740 W/m 19,3 km/h (3 Bft) 95,74 %
30.03.2021 14:42 23,2 C 29,4 C 19,5 C 36 % 1030,6 hPa 0,0 l/m 2 min 0 min 742 W/m 16,1 km/h (3 Bft) 93,62 %
30.03.2021 14:44 23,3 C 28,3 C 19,5 C 36 % 1030,6 hPa 0,0 l/m 2 min 0 min 740 W/m 12,9 km/h (3 Bft) 91,49 %
30.03.2021 14:46 23,3 C 30,0 C 19,5 C 35 % 1030,6 hPa 0,0 l/m 2 min 0 min 733 W/m 6,4 km/h (2 Bft) 91,49 %
30.03.2021 14:48 23,4 C 28,9 C 19,5 C 35 % 1030,5 hPa 0,0 l/m 2 min 0 min 720 W/m 19,3 km/h (3 Bft) 95,65 %
30.03.2021 14:50 23,4 C 28,9 C 19,5 C 36 % 1030,5 hPa 0,0 l/m 2 min 0 min 733 W/m 12,9 km/h (3 Bft) 93,62 %
30.03.2021 14:52 23,4 C 28,9 C 19,5 C 35 % 1030,5 hPa 0,0 l/m 2 min 0 min 728 W/m 12,9 km/h (3 Bft) 93,62 %
30.03.2021 14:54 23,4 C 29,4 C 19,5 C 36 % 1030,4 hPa 0,0 l/m 2 min 0 min 726 W/m 12,9 km/h (3 Bft) 93,62 %
30.03.2021 14:56 23,5 C 28,9 C 19,5 C 36 % 1030,4 hPa 0,0 l/m 2 min 0 min 725 W/m 16,1 km/h (3 Bft) 93,62 %
30.03.2021 14:58 23,4 C 28,9 C 19,5 C 35 % 1030,4 hPa 0,0 l/m 2 min 0 min 727 W/m 12,9 km/h (3 Bft) 93,48 %
30.03.2021 15:00 23,4 C 29,4 C 19,5 C 36 % 1030,3 hPa 0,0 l/m 2 min 0 min 723 W/m 9,7 km/h (2 Bft) 93,62 %
30.03.2021 15:02 23,5 C 30,0 C 20,0 C 37 % 1030,3 hPa 0,0 l/m 2 min 0 min 721 W/m 6,4 km/h (2 Bft) 91,49 %
30.03.2021 15:04 23,5 C 30,0 C 20,0 C 35 % 1030,3 hPa 0,0 l/m 2 min 0 min 717 W/m 16,1 km/h (3 Bft) 93,62 %
30.03.2021 15:06 23,5 C 29,4 C 19,5 C 35 % 1030,3 hPa 0,0 l/m 2 min 0 min 713 W/m 16,1 km/h (3 Bft) 93,62 %
30.03.2021 15:08 23,5 C 29,4 C 19,5 C 35 % 1030,2 hPa 0,0 l/m 2 min 0 min 711 W/m 9,7 km/h (2 Bft) 94,83 %
30.03.2021 15:10 23,6 C 29,4 C 19,5 C 35 % 1030,3 hPa 0,0 l/m 2 min 0 min 706 W/m 19,3 km/h (3 Bft) 97,22 %
30.03.2021 15:12 23,7 C 29,4 C 20,0 C 34 % 1030,2 hPa 0,0 l/m 2 min 0 min 701 W/m 12,9 km/h (3 Bft) 93,48 %
30.03.2021 15:14 23,7 C 29,4 C 19,5 C 33 % 1030,2 hPa 0,0 l/m 2 min 0 min 698 W/m 12,9 km/h (3 Bft) 93,62 %
30.03.2021 15:16 23,7 C 28,9 C 19,5 C 33 % 1030,2 hPa 0,0 l/m 2 min 0 min 695 W/m 9,7 km/h (2 Bft) 97,87 %
30.03.2021 15:18 23,7 C 28,9 C 19,5 C 33 % 1030,1 hPa 0,0 l/m 2 min 0 min 691 W/m 12,9 km/h (3 Bft) 93,62 %
30.03.2021 15:20 23,7 C 28,9 C 19,5 C 34 % 1030,1 hPa 0,0 l/m 2 min 0 min 688 W/m 16,1 km/h (3 Bft) 97,87 %
30.03.2021 15:22 23,7 C 28,9 C 19,5 C 34 % 1030,1 hPa 0,0 l/m 2 min 0 min 690 W/m 16,1 km/h (3 Bft) 97,83 %
30.03.2021 15:24 23,7 C 28,9 C 19,5 C 34 % 1030,1 hPa 0,0 l/m 2 min 0 min 682 W/m 12,9 km/h (3 Bft) 97,87 %
30.03.2021 15:26 23,8 C 28,9 C 19,5 C 33 % 1030,0 hPa 0,0 l/m 2 min 0 min 685 W/m 19,3 km/h (3 Bft) 97,87 %
30.03.2021 15:28 23,8 C 28,3 C 19,5 C 33 % 1030,0 hPa 0,0 l/m 2 min 0 min 680 W/m 19,3 km/h (3 Bft) 93,62 %
30.03.2021 15:30 23,8 C 29,4 C 19,5 C 34 % 1029,9 hPa 0,0 l/m 2 min 0 min 674 W/m 12,9 km/h (3 Bft) 95,74 %
30.03.2021 15:32 23,8 C 30,0 C 19,5 C 34 % 1029,9 hPa 0,0 l/m 2 min 0 min 676 W/m 12,9 km/h (3 Bft) 97,87 %
30.03.2021 15:34 23,8 C 29,4 C 19,5 C 33 % 1029,9 hPa 0,0 l/m 2 min 0 min 675 W/m 16,1 km/h (3 Bft) 95,65 %
30.03.2021 15:36 23,8 C 29,4 C 19,5 C 33 % 1029,8 hPa 0,0 l/m 2 min 0 min 668 W/m 16,1 km/h (3 Bft) 97,87 %
30.03.2021 15:38 23,9 C 29,4 C 19,5 C 34 % 1029,8 hPa 0,0 l/m 2 min 0 min 663 W/m 16,1 km/h (3 Bft) 95,74 %
30.03.2021 15:40 23,9 C 30,0 C 19,5 C 33 % 1029,7 hPa 0,0 l/m 2 min 0 min 641 W/m 12,9 km/h (3 Bft) 98,18 %
30.03.2021 15:42 23,9 C 30,6 C 19,5 C 34 % 1029,7 hPa 0,0 l/m 2 min 0 min 621 W/m 6,4 km/h (2 Bft) 100,00 %
30.03.2021 15:44 23,9 C 31,7 C 19,5 C 34 % 1029,7 hPa 0,0 l/m 2 min 0 min 651 W/m 6,4 km/h (2 Bft) 97,83 %
30.03.2021 15:46 24,0 C 32,2 C 20,0 C 34 % 1029,7 hPa 0,0 l/m 2 min 0 min 646 W/m 6,4 km/h (2 Bft) 100,00 %
30.03.2021 15:48 24,1 C 32,8 C 20,0 C 35 % 1029,6 hPa 0,0 l/m 2 min 0 min 653 W/m 12,9 km/h (3 Bft) 100,00 %
30.03.2021 15:50 24,2 C 32,2 C 20,0 C 33 % 1029,7 hPa 0,0 l/m 2 min 0 min 648 W/m 16,1 km/h (3 Bft) 100,00 %
30.03.2021 15:52 24,2 C 32,8 C 20,0 C 33 % 1029,6 hPa 0,0 l/m 2 min 0 min 647 W/m 6,4 km/h (2 Bft) 97,87 %
30.03.2021 15:54 24,3 C 32,2 C 20,0 C 32 % 1029,6 hPa 0,0 l/m 2 min 0 min 642 W/m 12,9 km/h (3 Bft) 100,00 %
30.03.2021 15:56 24,3 C 32,2 C 20,0 C 32 % 1029,5 hPa 0,0 l/m 2 min 0 min 635 W/m 6,4 km/h (2 Bft) 97,83 %
30.03.2021 15:58 24,4 C 32,8 C 20,0 C 33 % 1029,4 hPa 0,0 l/m 2 min 0 min 636 W/m 3,2 km/h (1 Bft) 100,00 %
30.03.2021 16:00 24,4 C 32,8 C 20,0 C 33 % 1029,4 hPa 0,0 l/m 2 min 0 min 636 W/m 12,9 km/h (3 Bft) 100,00 %
30.03.2021 16:02 24,4 C 32,8 C 20,0 C 33 % 1029,4 hPa 0,0 l/m 2 min 0 min 630 W/m 6,4 km/h (2 Bft) 100,00 %
30.03.2021 16:04 24,5 C 32,8 C 20,6 C 34 % 1029,4 hPa 0,0 l/m 2 min 0 min 626 W/m 9,7 km/h (2 Bft) 100,00 %
30.03.2021 16:06 24,5 C 33,9 C 20,6 C 34 % 1029,4 hPa 0,0 l/m 2 min 0 min 621 W/m 6,4 km/h (2 Bft) 100,00 %
30.03.2021 16:08 24,5 C 33,9 C 20,6 C 33 % 1029,3 hPa 0,0 l/m 2 min 0 min 611 W/m 9,7 km/h (2 Bft) 100,00 %
30.03.2021 16:10 24,6 C 34,4 C 20,6 C 35 % 1029,2 hPa 0,0 l/m 2 min 0 min 594 W/m 9,7 km/h (2 Bft) 97,87 %
30.03.2021 16:12 24,6 C 34,4 C 21,1 C 35 % 1029,3 hPa 0,0 l/m 2 min 0 min 585 W/m 9,7 km/h (2 Bft) 95,74 %
30.03.2021 16:14 24,6 C 33,9 C 20,6 C 33 % 1029,2 hPa 0,0 l/m 2 min 0 min 520 W/m 9,7 km/h (2 Bft) 97,87 %
30.03.2021 16:16 24,6 C 31,7 C 20,6 C 33 % 1029,2 hPa 0,0 l/m 2 min 0 min 480 W/m 16,1 km/h (3 Bft) 100,00 %
30.03.2021 16:18 24,6 C 30,6 C 20,6 C 32 % 1029,2 hPa 0,0 l/m 2 min 0 min 436 W/m 12,9 km/h (3 Bft) 100,00 %
30.03.2021 16:20 24,6 C 30,0 C 20,0 C 33 % 1029,1 hPa 0,0 l/m 2 min 0 min 433 W/m 6,4 km/h (2 Bft) 97,83 %
30.03.2021 16:22 24,6 C 28,9 C 20,0 C 32 % 1029,1 hPa 0,0 l/m 2 min 0 min 437 W/m 6,4 km/h (2 Bft) 100,00 %
30.03.2021 16:24 24,6 C 29,4 C 20,0 C 32 % 1029,0 hPa 0,0 l/m 2 min 0 min 423 W/m 6,4 km/h (2 Bft) 100,00 %
30.03.2021 16:26 24,5 C 30,0 C 20,0 C 32 % 1029,0 hPa 0,0 l/m 2 min 0 min 433 W/m 9,7 km/h (2 Bft) 100,00 %
30.03.2021 16:28 24,5 C 30,0 C 20,6 C 32 % 1029,0 hPa 0,0 l/m 2 min 0 min 479 W/m 6,4 km/h (2 Bft) 100,00 %
30.03.2021 16:30 24,5 C 30,6 C 20,6 C 33 % 1029,0 hPa 0,0 l/m 2 min 0 min 517 W/m 3,2 km/h (1 Bft) 100,00 %
30.03.2021 16:32 24,5 C 30,6 C 20,6 C 33 % 1029,0 hPa 0,0 l/m 2 min 0 min 534 W/m 6,4 km/h (2 Bft) 100,00 %
30.03.2021 16:34 24,5 C 31,7 C 20,6 C 34 % 1028,9 hPa 0,0 l/m 2 min 0 min 545 W/m 3,2 km/h (1 Bft) 100,00 %
30.03.2021 16:36 24,5 C 31,7 C 20,6 C 34 % 1028,9 hPa 0,0 l/m 2 min 0 min 543 W/m 6,4 km/h (2 Bft) 100,00 %
30.03.2021 16:38 24,5 C 32,2 C 21,1 C 34 % 1028,8 hPa 0,0 l/m 2 min 0 min 532 W/m 6,4 km/h (2 Bft) 100,00 %
30.03.2021 16:40 24,5 C 32,2 C 21,1 C 33 % 1028,8 hPa 0,0 l/m 2 min 0 min 521 W/m 6,4 km/h (2 Bft) 97,87 %
30.03.2021 16:42 24,5 C 31,7 C 21,1 C 33 % 1028,7 hPa 0,0 l/m 2 min 0 min 519 W/m 6,4 km/h (2 Bft) 100,00 %
30.03.2021 16:44 24,6 C 32,2 C 21,1 C 34 % 1028,7 hPa 0,0 l/m 2 min 0 min 518 W/m 6,4 km/h (2 Bft) 100,00 %
30.03.2021 16:46 24,6 C 33,3 C 21,1 C 35 % 1028,7 hPa 0,0 l/m 2 min 0 min 518 W/m 6,4 km/h (2 Bft) 100,00 %
30.03.2021 16:48 24,8 C 33,9 C 20,6 C 37 % 1028,7 hPa 0,0 l/m 2 min 0 min 510 W/m 6,4 km/h (2 Bft) 100,00 %
30.03.2021 16:50 24,8 C 33,3 C 21,1 C 38 % 1028,7 hPa 0,0 l/m 2 min 0 min 506 W/m 6,4 km/h (2 Bft) 97,87 %
30.03.2021 16:52 24,8 C 33,3 C 21,1 C 39 % 1028,7 hPa 0,0 l/m 2 min 0 min 511 W/m 6,4 km/h (2 Bft) 100,00 %
30.03.2021 16:54 24,8 C 33,9 C 20,6 C 39 % 1028,6 hPa 0,0 l/m 2 min 0 min 503 W/m 6,4 km/h (2 Bft) 97,83 %
30.03.2021 16:56 24,6 C 33,3 C 20,6 C 37 % 1028,6 hPa 0,0 l/m 2 min 0 min 494 W/m 12,9 km/h (3 Bft) 97,87 %
30.03.2021 16:58 24,6 C 33,9 C 20,6 C 38 % 1028,6 hPa 0,0 l/m 2 min 0 min 488 W/m 6,4 km/h (2 Bft) 95,74 %
30.03.2021 17:00 24,5 C 33,9 C 20,6 C 37 % 1028,6 hPa 0,0 l/m 2 min 0 min 477 W/m 6,4 km/h (2 Bft) 97,87 %
30.03.2021 17:02 24,5 C 33,9 C 20,6 C 36 % 1028,5 hPa 0,0 l/m 2 min 0 min 467 W/m 6,4 km/h (2 Bft) 95,74 %
30.03.2021 17:04 24,5 C 33,3 C 20,6 C 36 % 1028,5 hPa 0,0 l/m 2 min 0 min 454 W/m 9,7 km/h (2 Bft) 94,29 %
30.03.2021 17:06 24,5 C 33,3 C 20,6 C 35 % 1028,5 hPa 0,0 l/m 2 min 0 min 444 W/m 16,1 km/h (3 Bft) 98,28 %
30.03.2021 17:08 24,5 C 32,8 C 20,0 C 35 % 1028,5 hPa 0,0 l/m 2 min 0 min 450 W/m 6,4 km/h (2 Bft) 97,87 %
30.03.2021 17:10 24,5 C 32,8 C 20,0 C 35 % 1028,5 hPa 0,0 l/m 2 min 0 min 431 W/m 6,4 km/h (2 Bft) 97,87 %
30.03.2021 17:12 24,4 C 32,8 C 20,0 C 35 % 1028,4 hPa 0,0 l/m 2 min 0 min 426 W/m 3,2 km/h (1 Bft) 97,87 %
30.03.2021 17:14 24,4 C 32,8 C 19,5 C 34 % 1028,4 hPa 0,0 l/m 2 min 0 min 421 W/m 6,4 km/h (2 Bft) 97,87 %
30.03.2021 17:16 24,3 C 32,8 C 19,5 C 34 % 1028,4 hPa 0,0 l/m 2 min 0 min 414 W/m 6,4 km/h (2 Bft) 97,14 %
30.03.2021 17:18 24,2 C 32,8 C 19,5 C 36 % 1028,3 hPa 0,0 l/m 2 min 0 min 405 W/m 6,4 km/h (2 Bft) 97,87 %
30.03.2021 17:20 24,2 C 32,8 C 19,5 C 35 % 1028,3 hPa 0,0 l/m 2 min 0 min 413 W/m 3,2 km/h (1 Bft) 96,55 %
30.03.2021 17:22 24,2 C 32,8 C 19,5 C 33 % 1028,3 hPa 0,0 l/m 2 min 0 min 417 W/m 3,2 km/h (1 Bft) 95,74 %
30.03.2021 17:24 24,3 C 33,3 C 19,5 C 33 % 1028,3 hPa 0,0 l/m 2 min 0 min 412 W/m 6,4 km/h (2 Bft) 97,87 %
30.03.2021 17:26 24,4 C 32,8 C 19,5 C 37 % 1028,3 hPa 0,0 l/m 2 min 0 min 408 W/m 6,4 km/h (2 Bft) 95,74 %
30.03.2021 17:28 24,4 C 32,8 C 18,9 C 35 % 1028,3 hPa 0,0 l/m 2 min 0 min 401 W/m 3,2 km/h (1 Bft) 97,87 %
30.03.2021 17:30 24,3 C 32,8 C 18,9 C 35 % 1028,2 hPa 0,0 l/m 2 min 0 min 397 W/m 6,4 km/h (2 Bft) 97,83 %
30.03.2021 17:32 24,3 C 32,2 C 19,5 C 37 % 1028,2 hPa 0,0 l/m 2 min 0 min 392 W/m 6,4 km/h (2 Bft) 95,74 %
30.03.2021 17:34 24,3 C 32,2 C 19,5 C 37 % 1028,2 hPa 0,0 l/m 2 min 0 min 383 W/m 6,4 km/h (2 Bft) 100,00 %
30.03.2021 17:36 24,3 C 32,2 C 19,5 C 36 % 1028,2 hPa 0,0 l/m 2 min 0 min 377 W/m 6,4 km/h (2 Bft) 100,00 %
30.03.2021 17:38 24,2 C 32,2 C 19,5 C 35 % 1028,2 hPa 0,0 l/m 2 min 0 min 373 W/m 6,4 km/h (2 Bft) 97,87 %
30.03.2021 17:40 24,1 C 31,7 C 19,5 C 35 % 1028,2 hPa 0,0 l/m 2 min 0 min 366 W/m 6,4 km/h (2 Bft) 94,29 %
30.03.2021 17:42 24,1 C 31,7 C 19,5 C 34 % 1028,1 hPa 0,0 l/m 2 min 0 min 359 W/m 6,4 km/h (2 Bft) 93,62 %
30.03.2021 17:44 24,1 C 31,7 C 19,5 C 35 % 1028,1 hPa 0,0 l/m 2 min 0 min 351 W/m 3,2 km/h (1 Bft) 96,55 %
30.03.2021 17:46 24,1 C 31,7 C 19,5 C 34 % 1028,0 hPa 0,0 l/m 2 min 0 min 346 W/m 6,4 km/h (2 Bft) 100,00 %
30.03.2021 17:48 24,1 C 31,1 C 19,5 C 34 % 1028,0 hPa 0,0 l/m 2 min 0 min 338 W/m 3,2 km/h (1 Bft) 97,87 %
30.03.2021 17:50 24,2 C 31,7 C 19,5 C 36 % 1028,0 hPa 0,0 l/m 2 min 0 min 331 W/m 3,2 km/h (1 Bft) 95,74 %
30.03.2021 17:52 24,3 C 31,1 C 19,5 C 34 % 1027,9 hPa 0,0 l/m 2 min 0 min 326 W/m 3,2 km/h (1 Bft) 95,74 %
30.03.2021 17:54 24,3 C 31,1 C 19,5 C 36 % 1027,9 hPa 0,0 l/m 2 min 0 min 320 W/m 9,7 km/h (2 Bft) 97,87 %
30.03.2021 17:56 24,3 C 30,6 C 19,5 C 33 % 1027,9 hPa 0,0 l/m 2 min 0 min 312 W/m 9,7 km/h (2 Bft) 97,83 %
30.03.2021 17:58 24,3 C 30,6 C 19,5 C 34 % 1027,8 hPa 0,0 l/m 2 min 0 min 305 W/m 3,2 km/h (1 Bft) 93,62 %
30.03.2021 18:00 24,3 C 30,0 C 19,5 C 36 % 1027,8 hPa 0,0 l/m 2 min 0 min 297 W/m 6,4 km/h (2 Bft) 95,74 %
30.03.2021 18:02 24,3 C 30,0 C 19,5 C 35 % 1027,8 hPa 0,0 l/m 2 min 0 min 291 W/m 6,4 km/h (2 Bft) 95,74 %
30.03.2021 18:04 24,2 C 29,4 C 19,5 C 35 % 1027,8 hPa 0,0 l/m 2 min 0 min 286 W/m 3,2 km/h (1 Bft) 93,62 %
30.03.2021 18:08 24,2 C 29,4 C 19,5 C 35 % 1027,8 hPa 0,0 l/m 4 min 0 min 272 W/m 6,4 km/h (2 Bft) 96,77 %
30.03.2021 18:10 24,2 C 28,9 C 19,5 C 35 % 1027,8 hPa 0,0 l/m 2 min 0 min 261 W/m 6,4 km/h (2 Bft) 93,62 %
30.03.2021 18:12 24,3 C 29,4 C 19,5 C 35 % 1027,8 hPa 0,0 l/m 2 min 0 min 253 W/m 3,2 km/h (1 Bft) 95,74 %
30.03.2021 18:14 24,4 C 28,9 C 19,5 C 34 % 1027,8 hPa 0,0 l/m 2 min 0 min 246 W/m 3,2 km/h (1 Bft) 95,74 %
30.03.2021 18:16 24,4 C 29,4 C 18,9 C 37 % 1027,7 hPa 0,0 l/m 2 min 0 min 240 W/m 3,2 km/h (1 Bft) 95,74 %
30.03.2021 18:18 24,4 C 29,4 C 19,5 C 30 % 1027,7 hPa 0,0 l/m 2 min 0 min 233 W/m 3,2 km/h (1 Bft) 95,74 %
30.03.2021 18:20 24,4 C 29,4 C 19,5 C 31 % 1027,7 hPa 0,0 l/m 2 min 0 min 225 W/m 3,2 km/h (1 Bft) 95,65 %
30.03.2021 18:22 24,4 C 28,9 C 19,5 C 30 % 1027,6 hPa 0,0 l/m 2 min 0 min 217 W/m 6,4 km/h (2 Bft) 95,74 %
30.03.2021 18:24 24,4 C 28,9 C 19,5 C 29 % 1027,7 hPa 0,0 l/m 2 min 0 min 209 W/m 6,4 km/h (2 Bft) 95,74 %
30.03.2021 18:26 24,4 C 28,9 C 19,5 C 29 % 1027,6 hPa 0,0 l/m 2 min 0 min 202 W/m 6,4 km/h (2 Bft) 95,74 %
30.03.2021 18:28 24,4 C 28,9 C 20,0 C 29 % 1027,6 hPa 0,0 l/m 2 min 0 min 195 W/m 6,4 km/h (2 Bft) 95,74 %
30.03.2021 18:30 24,4 C 28,9 C 20,0 C 29 % 1027,6 hPa 0,0 l/m 2 min 0 min 189 W/m 6,4 km/h (2 Bft) 97,87 %
30.03.2021 18:32 24,4 C 28,3 C 19,5 C 29 % 1027,6 hPa 0,0 l/m 2 min 0 min 182 W/m 12,9 km/h (3 Bft) 95,65 %
30.03.2021 18:34 24,4 C 28,3 C 20,0 C 29 % 1027,6 hPa 0,0 l/m 2 min 0 min 175 W/m 6,4 km/h (2 Bft) 97,87 %
30.03.2021 18:36 24,4 C 28,9 C 20,0 C 31 % 1027,5 hPa 0,0 l/m 2 min 0 min 166 W/m 3,2 km/h (1 Bft) 98,11 %
30.03.2021 18:38 24,3 C 28,3 C 19,5 C 30 % 1027,5 hPa 0,0 l/m 2 min 0 min 146 W/m 6,4 km/h (2 Bft) 97,87 %
30.03.2021 18:40 24,3 C 27,2 C 19,5 C 29 % 1027,5 hPa 0,0 l/m 2 min 0 min 113 W/m 6,4 km/h (2 Bft) 97,87 %
30.03.2021 18:42 24,2 C 27,2 C 19,5 C 30 % 1027,5 hPa 0,0 l/m 2 min 0 min 112 W/m 3,2 km/h (1 Bft) 97,83 %
30.03.2021 18:44 24,1 C 27,2 C 19,5 C 30 % 1027,4 hPa 0,0 l/m 2 min 0 min 138 W/m 3,2 km/h (1 Bft) 97,87 %
30.03.2021 18:46 24,1 C 27,2 C 19,5 C 34 % 1027,4 hPa 0,0 l/m 2 min 0 min 133 W/m 3,2 km/h (1 Bft) 98,11 %
30.03.2021 18:48 24,1 C 27,2 C 18,9 C 35 % 1027,4 hPa 0,0 l/m 2 min 0 min 127 W/m 3,2 km/h (1 Bft) 97,87 %
30.03.2021 18:50 24,1 C 27,2 C 18,9 C 32 % 1027,4 hPa 0,0 l/m 2 min 0 min 121 W/m 3,2 km/h (1 Bft) 97,87 %
30.03.2021 18:52 24,1 C 27,2 C 18,4 C 32 % 1027,4 hPa 0,0 l/m 2 min 0 min 115 W/m 0,0 km/h (0 Bft) 95,65 %
30.03.2021 18:54 24,0 C 26,7 C 18,4 C 33 % 1027,3 hPa 0,0 l/m 2 min 0 min 110 W/m 3,2 km/h (1 Bft) 100,00 %
30.03.2021 18:56 24,0 C 26,7 C 17,8 C 34 % 1027,4 hPa 0,0 l/m 2 min 0 min 103 W/m 3,2 km/h (1 Bft) 100,00 %
30.03.2021 18:58 24,0 C 26,1 C 17,3 C 35 % 1027,3 hPa 0,0 l/m 2 min 0 min 97 W/m 3,2 km/h (1 Bft) 100,00 %
30.03.2021 19:00 24,0 C 25,0 C 16,7 C 39 % 1027,3 hPa 0,0 l/m 2 min 0 min 92 W/m 0,0 km/h (0 Bft) 100,00 %
30.03.2021 19:02 24,0 C 24,4 C 16,7 C 40 % 1027,4 hPa 0,0 l/m 0 min 0 min 67 W/m 3,2 km/h (1 Bft) 97,87 %
30.03.2021 19:04 24,0 C 23,3 C 16,1 C 40 % 1027,3 hPa 0,0 l/m 0 min 0 min 38 W/m 3,2 km/h (1 Bft) 100,00 %
30.03.2021 19:06 24,0 C 22,8 C 15,6 C 41 % 1027,4 hPa 0,0 l/m 0 min 0 min 37 W/m 3,2 km/h (1 Bft) 100,00 %
30.03.2021 19:08 23,9 C 22,2 C 15,6 C 38 % 1027,3 hPa 0,0 l/m 0 min 0 min 37 W/m 3,2 km/h (1 Bft) 100,00 %
30.03.2021 19:10 23,9 C 21,7 C 15,6 C 36 % 1027,3 hPa 0,0 l/m 0 min 0 min 35 W/m 3,2 km/h (1 Bft) 100,00 %
30.03.2021 19:12 23,9 C 21,1 C 15,6 C 36 % 1027,3 hPa 0,0 l/m 0 min 0 min 34 W/m 6,4 km/h (2 Bft) 100,00 %
30.03.2021 19:14 23,8 C 21,1 C 15,6 C 35 % 1027,3 hPa 0,0 l/m 0 min 0 min 33 W/m 3,2 km/h (1 Bft) 97,87 %
30.03.2021 19:16 23,8 C 20,6 C 15,6 C 37 % 1027,3 hPa 0,0 l/m 0 min 0 min 32 W/m 0,0 km/h (0 Bft) 100,00 %
30.03.2021 19:18 23,6 C 20,6 C 15,6 C 37 % 1027,3 hPa 0,0 l/m 0 min 0 min 32 W/m 0,0 km/h (0 Bft) 100,00 %
30.03.2021 19:20 23,6 C 20,0 C 15,6 C 37 % 1027,3 hPa 0,0 l/m 0 min 0 min 30 W/m 0,0 km/h (0 Bft) 100,00 %
30.03.2021 19:22 23,5 C 20,0 C 15,0 C 36 % 1027,3 hPa 0,0 l/m 0 min 0 min 29 W/m 3,2 km/h (1 Bft) 97,87 %
30.03.2021 19:24 23,4 C 20,0 C 15,0 C 37 % 1027,3 hPa 0,0 l/m 0 min 0 min 28 W/m 3,2 km/h (1 Bft) 97,87 %
30.03.2021 19:26 23,3 C 19,4 C 14,5 C 37 % 1027,2 hPa 0,0 l/m 0 min 0 min 24 W/m 3,2 km/h (1 Bft) 97,87 %
30.03.2021 19:28 23,1 C 19,4 C 14,5 C 36 % 1027,2 hPa 0,0 l/m 0 min 0 min 23 W/m 0,0 km/h (0 Bft) 97,87 %
30.03.2021 19:30 23,0 C 19,4 C 14,5 C 36 % 1027,2 hPa 0,0 l/m 0 min 0 min 21 W/m 0,0 km/h (0 Bft) 97,87 %
30.03.2021 19:32 22,9 C 18,9 C 14,5 C 38 % 1027,2 hPa 0,0 l/m 0 min 0 min 21 W/m 0,0 km/h (0 Bft) 97,83 %
30.03.2021 19:34 22,8 C 18,9 C 13,9 C 39 % 1027,2 hPa 0,0 l/m 0 min 0 min 19 W/m 0,0 km/h (0 Bft) 94,92 %
30.03.2021 19:36 22,6 C 18,9 C 13,9 C 40 % 1027,2 hPa 0,0 l/m 0 min 0 min 18 W/m 0,0 km/h (0 Bft) 97,87 %
30.03.2021 19:38 22,5 C 18,3 C 13,4 C 40 % 1027,2 hPa 0,0 l/m 0 min 0 min 18 W/m 0,0 km/h (0 Bft) 97,87 %
30.03.2021 19:40 22,3 C 18,3 C 13,4 C 42 % 1027,2 hPa 0,0 l/m 0 min 0 min 16 W/m 0,0 km/h (0 Bft) 97,83 %
30.03.2021 19:42 22,1 C 18,3 C 13,4 C 43 % 1027,1 hPa 0,0 l/m 0 min 0 min 16 W/m 0,0 km/h (0 Bft) 97,22 %
30.03.2021 19:44 22,0 C 17,8 C 13,4 C 41 % 1027,2 hPa 0,0 l/m 0 min 0 min 14 W/m 0,0 km/h (0 Bft) 97,83 %
30.03.2021 19:46 21,8 C 17,8 C 12,8 C 41 % 1027,1 hPa 0,0 l/m 0 min 0 min 14 W/m 0,0 km/h (0 Bft) 97,87 %
30.03.2021 19:48 21,6 C 17,8 C 12,8 C 41 % 1027,1 hPa 0,0 l/m 0 min 0 min 13 W/m 0,0 km/h (0 Bft) 98,28 %
30.03.2021 19:50 21,5 C 17,8 C 12,8 C 41 % 1027,1 hPa 0,0 l/m 0 min 0 min 12 W/m 0,0 km/h (0 Bft) 97,87 %
30.03.2021 19:52 21,4 C 17,2 C 12,8 C 42 % 1027,0 hPa 0,0 l/m 0 min 0 min 12 W/m 0,0 km/h (0 Bft) 95,65 %
30.03.2021 19:54 21,2 C 17,2 C 12,3 C 43 % 1027,1 hPa 0,0 l/m 0 min 0 min 11 W/m 0,0 km/h (0 Bft) 97,87 %
30.03.2021 19:56 21,0 C 17,2 C 12,3 C 43 % 1027,1 hPa 0,0 l/m 0 min 0 min 10 W/m 0,0 km/h (0 Bft) 95,74 %
30.03.2021 19:58 20,9 C 17,2 C 12,3 C 43 % 1027,0 hPa 0,0 l/m 0 min 0 min 9 W/m 0,0 km/h (0 Bft) 97,87 %
30.03.2021 20:00 20,8 C 16,7 C 12,3 C 45 % 1027,0 hPa 0,0 l/m 0 min 0 min 7 W/m 0,0 km/h (0 Bft) 95,74 %
30.03.2021 20:02 20,6 C 16,7 C 12,3 C 45 % 1027,0 hPa 0,0 l/m 0 min 0 min 7 W/m 0,0 km/h (0 Bft) 97,87 %
30.03.2021 20:04 20,4 C 16,7 C 12,3 C 44 % 1027,0 hPa 0,0 l/m 0 min 0 min 5 W/m 0,0 km/h (0 Bft) 95,65 %
30.03.2021 20:06 20,3 C 16,7 C 12,3 C 43 % 1027,1 hPa 0,0 l/m 0 min 0 min 5 W/m 0,0 km/h (0 Bft) 97,87 %
30.03.2021 20:08 20,1 C 16,1 C 11,7 C 44 % 1027,0 hPa 0,0 l/m 0 min 0 min 0 W/m 0,0 km/h (0 Bft) 100,00 %
30.03.2021 20:10 19,9 C 16,1 C 11,7 C 42 % 1027,1 hPa 0,0 l/m 0 min 0 min 0 W/m 0,0 km/h (0 Bft) 100,00 %
30.03.2021 20:12 19,8 C 16,1 C 11,7 C 42 % 1027,1 hPa 0,0 l/m 0 min 0 min 0 W/m 0,0 km/h (0 Bft) 100,00 %
30.03.2021 20:14 19,6 C 16,1 C 11,7 C 42 % 1027,1 hPa 0,0 l/m 0 min 0 min 0 W/m 0,0 km/h (0 Bft) 100,00 %
30.03.2021 20:16 19,4 C 16,1 C 11,7 C 42 % 1027,1 hPa 0,0 l/m 0 min 0 min 0 W/m 0,0 km/h (0 Bft) 100,00 %
30.03.2021 20:18 19,3 C 15,6 C 11,1 C 43 % 1027,1 hPa 0,0 l/m 0 min 0 min 0 W/m 0,0 km/h (0 Bft) 100,00 %
30.03.2021 20:20 19,2 C 15,6 C 11,1 C 46 % 1027,0 hPa 0,0 l/m 0 min 0 min 0 W/m 0,0 km/h (0 Bft) 100,00 %
30.03.2021 20:22 19,1 C 15,6 C 11,1 C 48 % 1027,0 hPa 0,0 l/m 0 min 0 min 0 W/m 0,0 km/h (0 Bft) 100,00 %
30.03.2021 20:24 19,0 C 15,6 C 11,1 C 48 % 1027,0 hPa 0,0 l/m 0 min 0 min 0 W/m 0,0 km/h (0 Bft) 100,00 %
30.03.2021 20:26 18,9 C 15,0 C 11,1 C 47 % 1027,0 hPa 0,0 l/m 0 min 0 min 0 W/m 0,0 km/h (0 Bft) 100,00 %
30.03.2021 20:28 18,8 C 15,0 C 11,1 C 48 % 1027,1 hPa 0,0 l/m 0 min 0 min 0 W/m 0,0 km/h (0 Bft) 100,00 %
30.03.2021 20:30 18,6 C 15,0 C 11,1 C 48 % 1027,0 hPa 0,0 l/m 0 min 0 min 0 W/m 0,0 km/h (0 Bft) 100,00 %
30.03.2021 20:32 18,5 C 15,0 C 11,1 C 49 % 1027,0 hPa 0,0 l/m 0 min 0 min 0 W/m 0,0 km/h (0 Bft) 97,87 %
30.03.2021 20:34 18,4 C 15,0 C 11,1 C 49 % 1027,0 hPa 0,0 l/m 0 min 0 min 0 W/m 0,0 km/h (0 Bft) 100,00 %
30.03.2021 20:36 18,3 C 15,0 C 11,1 C 50 % 1027,0 hPa 0,0 l/m 0 min 0 min 0 W/m 0,0 km/h (0 Bft) 97,87 %
30.03.2021 20:38 18,1 C 14,4 C 10,6 C 50 % 1027,0 hPa 0,0 l/m 0 min 0 min 0 W/m 0,0 km/h (0 Bft) 100,00 %
30.03.2021 20:40 18,0 C 14,4 C 10,6 C 50 % 1027,0 hPa 0,0 l/m 0 min 0 min 0 W/m 0,0 km/h (0 Bft) 100,00 %
30.03.2021 20:42 17,9 C 14,4 C 10,6 C 51 % 1027,0 hPa 0,0 l/m 0 min 0 min 0 W/m 0,0 km/h (0 Bft) 97,87 %
30.03.2021 20:44 17,8 C 14,4 C 10,6 C 52 % 1027,0 hPa 0,0 l/m 0 min 0 min 0 W/m 0,0 km/h (0 Bft) 97,87 %
30.03.2021 20:46 17,7 C 14,4 C 10,6 C 52 % 1027,0 hPa 0,0 l/m 0 min 0 min 0 W/m 0,0 km/h (0 Bft) 97,87 %
30.03.2021 20:48 17,5 C 14,4 C 10,6 C 52 % 1027,1 hPa 0,0 l/m 0 min 0 min 0 W/m 0,0 km/h (0 Bft) 97,87 %
30.03.2021 20:50 17,5 C 14,4 C 10,0 C 53 % 1027,1 hPa 0,0 l/m 0 min 0 min 0 W/m 0,0 km/h (0 Bft) 97,22 %
30.03.2021 20:52 17,4 C 13,9 C 10,0 C 54 % 1027,0 hPa 0,0 l/m 0 min 0 min 0 W/m 0,0 km/h (0 Bft) 98,15 %
30.03.2021 20:54 17,3 C 13,9 C 10,0 C 54 % 1027,0 hPa 0,0 l/m 0 min 0 min 0 W/m 0,0 km/h (0 Bft) 95,74 %
30.03.2021 20:56 17,1 C 13,9 C 10,0 C 54 % 1027,0 hPa 0,0 l/m 0 min 0 min 0 W/m 0,0 km/h (0 Bft) 95,74 %
30.03.2021 20:58 17,0 C 13,9 C 10,0 C 54 % 1027,0 hPa 0,0 l/m 0 min 0 min 0 W/m 0,0 km/h (0 Bft) 93,62 %
30.03.2021 21:00 16,9 C 13,9 C 10,0 C 54 % 1027,0 hPa 0,0 l/m 0 min 0 min 0 W/m 0,0 km/h (0 Bft) 95,74 %
30.03.2021 21:02 16,9 C 13,9 C 10,0 C 54 % 1027,0 hPa 0,0 l/m 0 min 0 min 0 W/m 0,0 km/h (0 Bft) 95,83 %
30.03.2021 21:04 16,8 C 13,9 C 9,5 C 53 % 1027,0 hPa 0,0 l/m 0 min 0 min 0 W/m 0,0 km/h (0 Bft) 95,65 %
30.03.2021 21:06 16,6 C 13,9 C 9,5 C 54 % 1027,0 hPa 0,0 l/m 0 min 0 min 0 W/m 0,0 km/h (0 Bft) 93,62 %
30.03.2021 21:08 16,5 C 13,3 C 9,5 C 54 % 1027,0 hPa 0,0 l/m 0 min 0 min 0 W/m 0,0 km/h (0 Bft) 91,49 %
30.03.2021 21:10 16,4 C 13,3 C 9,5 C 54 % 1027,0 hPa 0,0 l/m 0 min 0 min 0 W/m 0,0 km/h (0 Bft) 93,62 %
30.03.2021 21:12 16,4 C 13,3 C 9,5 C 55 % 1027,0 hPa 0,0 l/m 0 min 0 min 0 W/m 0,0 km/h (0 Bft) 97,87 %
30.03.2021 21:14 16,3 C 13,3 C 9,5 C 56 % 1027,0 hPa 0,0 l/m 0 min 0 min 0 W/m 0,0 km/h (0 Bft) 97,87 %
30.03.2021 21:16 16,1 C 13,3 C 9,5 C 56 % 1026,9 hPa 0,0 l/m 0 min 0 min 0 W/m 0,0 km/h (0 Bft) 95,74 %
30.03.2021 21:18 16,1 C 13,3 C 9,5 C 55 % 1027,0 hPa 0,0 l/m 0 min 0 min 0 W/m 0,0 km/h (0 Bft) 97,83 %
30.03.2021 21:20 16,0 C 13,3 C 9,5 C 55 % 1027,0 hPa 0,0 l/m 0 min 0 min 0 W/m 0,0 km/h (0 Bft) 97,87 %
30.03.2021 21:22 15,9 C 13,3 C 9,5 C 55 % 1026,9 hPa 0,0 l/m 0 min 0 min 0 W/m 0,0 km/h (0 Bft) 97,87 %
30.03.2021 21:24 15,8 C 12,8 C 9,5 C 56 % 1026,9 hPa 0,0 l/m 0 min 0 min 0 W/m 0,0 km/h (0 Bft) 97,87 %
30.03.2021 21:26 15,8 C 12,8 C 9,5 C 57 % 1026,9 hPa 0,0 l/m 0 min 0 min 0 W/m 0,0 km/h (0 Bft) 97,87 %
30.03.2021 21:28 15,6 C 12,8 C 9,5 C 55 % 1026,9 hPa 0,0 l/m 0 min 0 min 0 W/m 0,0 km/h (0 Bft) 97,83 %
30.03.2021 21:30 15,5 C 12,8 C 9,5 C 53 % 1026,9 hPa 0,0 l/m 0 min 0 min 0 W/m 0,0 km/h (0 Bft) 97,87 %
30.03.2021 21:32 15,4 C 12,8 C 9,5 C 52 % 1026,9 hPa 0,0 l/m 0 min 0 min 0 W/m 0,0 km/h (0 Bft) 97,87 %
30.03.2021 21:34 15,3 C 12,8 C 8,9 C 52 % 1027,0 hPa 0,0 l/m 0 min 0 min 0 W/m 0,0 km/h (0 Bft) 97,87 %
30.03.2021 21:36 15,3 C 12,8 C 8,9 C 55 % 1026,9 hPa 0,0 l/m 0 min 0 min 0 W/m 0,0 km/h (0 Bft) 95,74 %
30.03.2021 21:38 15,1 C 12,8 C 8,9 C 55 % 1026,9 hPa 0,0 l/m 0 min 0 min 0 W/m 0,0 km/h (0 Bft) 97,87 %
30.03.2021 21:40 15,1 C 12,8 C 8,9 C 55 % 1026,9 hPa 0,0 l/m 0 min 0 min 0 W/m 0,0 km/h (0 Bft) 97,83 %
30.03.2021 21:42 15,0 C 12,8 C 8,9 C 57 % 1026,9 hPa 0,0 l/m 0 min 0 min 0 W/m 0,0 km/h (0 Bft) 97,87 %
30.03.2021 21:44 15,0 C 12,8 C 8,9 C 56 % 1026,9 hPa 0,0 l/m 0 min 0 min 0 W/m 0,0 km/h (0 Bft) 97,87 %
30.03.2021 21:46 14,9 C 12,2 C 8,9 C 57 % 1026,9 hPa 0,0 l/m 0 min 0 min 0 W/m 0,0 km/h (0 Bft) 97,87 %
30.03.2021 21:48 14,8 C 12,2 C 8,9 C 57 % 1026,9 hPa 0,0 l/m 0 min 0 min 0 W/m 0,0 km/h (0 Bft) 97,87 %
30.03.2021 21:50 14,8 C 12,2 C 8,9 C 60 % 1026,9 hPa 0,0 l/m 0 min 0 min 0 W/m 0,0 km/h (0 Bft) 97,87 %
30.03.2021 21:52 14,7 C 12,2 C 8,9 C 58 % 1026,9 hPa 0,0 l/m 0 min 0 min 0 W/m 0,0 km/h (0 Bft) 97,83 %
30.03.2021 21:54 14,6 C 12,2 C 8,9 C 56 % 1026,9 hPa 0,0 l/m 0 min 0 min 0 W/m 0,0 km/h (0 Bft) 97,83 %
30.03.2021 21:56 14,5 C 12,2 C 8,9 C 55 % 1026,9 hPa 0,0 l/m 0 min 0 min 0 W/m 0,0 km/h (0 Bft) 97,87 %
30.03.2021 21:58 14,4 C 12,2 C 8,9 C 55 % 1026,9 hPa 0,0 l/m 0 min 0 min 0 W/m 0,0 km/h (0 Bft) 97,87 %
30.03.2021 22:00 14,3 C 12,2 C 8,9 C 55 % 1026,9 hPa 0,0 l/m 0 min 0 min 0 W/m 0,0 km/h (0 Bft) 95,74 %
30.03.2021 22:02 14,2 C 12,2 C 8,9 C 55 % 1026,9 hPa 0,0 l/m 0 min 0 min 0 W/m 0,0 km/h (0 Bft) 95,74 %
30.03.2021 22:04 14,2 C 12,2 C 8,9 C 55 % 1026,8 hPa 0,0 l/m 0 min 0 min 0 W/m 0,0 km/h (0 Bft) 97,83 %
30.03.2021 22:06 14,2 C 12,2 C 8,9 C 56 % 1026,9 hPa 0,0 l/m 0 min 0 min 0 W/m 0,0 km/h (0 Bft) 97,87 %
30.03.2021 22:08 14,1 C 12,2 C 8,4 C 56 % 1026,9 hPa 0,0 l/m 0 min 0 min 0 W/m 0,0 km/h (0 Bft) 100,00 %
30.03.2021 22:10 14,1 C 11,7 C 8,4 C 56 % 1026,8 hPa 0,0 l/m 0 min 0 min 0 W/m 0,0 km/h (0 Bft) 97,87 %
30.03.2021 22:12 14,0 C 11,7 C 8,4 C 56 % 1026,9 hPa 0,0 l/m 0 min 0 min 0 W/m 0,0 km/h (0 Bft) 97,87 %
30.03.2021 22:14 14,0 C 11,7 C 8,4 C 58 % 1026,8 hPa 0,0 l/m 0 min 0 min 0 W/m 0,0 km/h (0 Bft) 97,87 %
30.03.2021 22:16 13,9 C 11,7 C 8,4 C 58 % 1026,8 hPa 0,0 l/m 0 min 0 min 0 W/m 0,0 km/h (0 Bft) 95,65 %
30.03.2021 22:18 13,9 C 11,7 C 8,4 C 59 % 1026,8 hPa 0,0 l/m 0 min 0 min 0 W/m 0,0 km/h (0 Bft) 97,87 %
30.03.2021 22:20 13,8 C 11,7 C 8,4 C 60 % 1026,7 hPa 0,0 l/m 0 min 0 min 0 W/m 0,0 km/h (0 Bft) 97,87 %
30.03.2021 22:22 13,7 C 11,7 C 8,4 C 60 % 1026,8 hPa 0,0 l/m 0 min 0 min 0 W/m 0,0 km/h (0 Bft) 95,74 %
30.03.2021 22:24 13,7 C 11,7 C 8,4 C 59 % 1026,8 hPa 0,0 l/m 0 min 0 min 0 W/m 0,0 km/h (0 Bft) 95,74 %
30.03.2021 22:26 13,6 C 11,7 C 8,4 C 61 % 1026,7 hPa 0,0 l/m 0 min 0 min 0 W/m 0,0 km/h (0 Bft) 95,74 %
30.03.2021 22:28 13,6 C 11,7 C 8,4 C 61 % 1026,7 hPa 0,0 l/m 0 min 0 min 0 W/m 0,0 km/h (0 Bft) 97,83 %
30.03.2021 22:30 13,5 C 11,1 C 8,4 C 61 % 1026,7 hPa 0,0 l/m 0 min 0 min 0 W/m 0,0 km/h (0 Bft) 98,00 %
30.03.2021 22:32 13,4 C 11,1 C 7,8 C 61 % 1026,6 hPa 0,0 l/m 0 min 0 min 0 W/m 0,0 km/h (0 Bft) 97,92 %
30.03.2021 22:34 13,4 C 11,1 C 7,8 C 60 % 1026,6 hPa 0,0 l/m 0 min 0 min 0 W/m 0,0 km/h (0 Bft) 97,22 %
30.03.2021 22:36 13,3 C 11,1 C 7,8 C 61 % 1026,7 hPa 0,0 l/m 0 min 0 min 0 W/m 0,0 km/h (0 Bft) 95,74 %
30.03.2021 22:38 13,3 C 11,1 C 7,8 C 61 % 1026,6 hPa 0,0 l/m 0 min 0 min 0 W/m 0,0 km/h (0 Bft) 97,87 %
30.03.2021 22:40 13,2 C 11,1 C 7,8 C 61 % 1026,6 hPa 0,0 l/m 0 min 0 min 0 W/m 0,0 km/h (0 Bft) 95,74 %
30.03.2021 22:42 13,1 C 11,1 C 7,8 C 62 % 1026,6 hPa 0,0 l/m 0 min 0 min 0 W/m 0,0 km/h (0 Bft) 95,65 %
30.03.2021 22:44 13,1 C 11,1 C 7,8 C 62 % 1026,6 hPa 0,0 l/m 0 min 0 min 0 W/m 0,0 km/h (0 Bft) 95,74 %
30.03.2021 22:46 13,0 C 11,1 C 7,8 C 62 % 1026,6 hPa 0,0 l/m 0 min 0 min 0 W/m 0,0 km/h (0 Bft) 93,62 %
30.03.2021 22:48 13,0 C 11,1 C 7,8 C 62 % 1026,6 hPa 0,0 l/m 0 min 0 min 0 W/m 0,0 km/h (0 Bft) 93,62 %
30.03.2021 22:50 12,9 C 11,1 C 7,8 C 62 % 1026,6 hPa 0,0 l/m 0 min 0 min 0 W/m 0,0 km/h (0 Bft) 93,62 %
30.03.2021 22:52 12,9 C 11,1 C 7,8 C 61 % 1026,5 hPa 0,0 l/m 0 min 0 min 0 W/m 0,0 km/h (0 Bft) 95,74 %
30.03.2021 22:54 12,8 C 11,1 C 7,8 C 61 % 1026,5 hPa 0,0 l/m 0 min 0 min 0 W/m 0,0 km/h (0 Bft) 95,65 %
30.03.2021 22:56 12,8 C 11,1 C 7,8 C 61 % 1026,5 hPa 0,0 l/m 0 min 0 min 0 W/m 0,0 km/h (0 Bft) 95,74 %
30.03.2021 22:58 12,7 C 11,1 C 7,8 C 60 % 1026,5 hPa 0,0 l/m 0 min 0 min 0 W/m 0,0 km/h (0 Bft) 97,87 %
30.03.2021 23:00 12,6 C 11,1 C 7,8 C 60 % 1026,5 hPa 0,0 l/m 0 min 0 min 0 W/m 0,0 km/h (0 Bft) 97,87 %
30.03.2021 23:02 12,5 C 11,1 C 7,8 C 61 % 1026,5 hPa 0,0 l/m 0 min 0 min 0 W/m 0,0 km/h (0 Bft) 95,74 %
30.03.2021 23:04 12,5 C 11,1 C 7,3 C 61 % 1026,4 hPa 0,0 l/m 0 min 0 min 0 W/m 0,0 km/h (0 Bft) 95,65 %
30.03.2021 23:06 12,4 C 11,1 C 7,3 C 60 % 1026,4 hPa 0,0 l/m 0 min 0 min 0 W/m 0,0 km/h (0 Bft) 95,74 %
30.03.2021 23:08 12,4 C 11,1 C 7,3 C 60 % 1026,4 hPa 0,0 l/m 0 min 0 min 0 W/m 0,0 km/h (0 Bft) 97,87 %
30.03.2021 23:10 12,4 C 11,1 C 7,3 C 60 % 1026,4 hPa 0,0 l/m 0 min 0 min 0 W/m 0,0 km/h (0 Bft) 97,87 %
30.03.2021 23:12 12,3 C 11,1 C 7,3 C 60 % 1026,4 hPa 0,0 l/m 0 min 0 min 0 W/m 0,0 km/h (0 Bft) 97,87 %
30.03.2021 23:14 12,3 C 11,1 C 7,3 C 60 % 1026,4 hPa 0,0 l/m 0 min 0 min 0 W/m 0,0 km/h (0 Bft) 97,87 %
30.03.2021 23:16 12,2 C 11,1 C 7,3 C 60 % 1026,4 hPa 0,0 l/m 0 min 0 min 0 W/m 0,0 km/h (0 Bft) 97,83 %
30.03.2021 23:18 12,2 C 10,6 C 7,3 C 60 % 1026,4 hPa 0,0 l/m 0 min 0 min 0 W/m 0,0 km/h (0 Bft) 97,87 %
30.03.2021 23:20 12,1 C 10,6 C 7,3 C 61 % 1026,4 hPa 0,0 l/m 0 min 0 min 0 W/m 0,0 km/h (0 Bft) 97,87 %
30.03.2021 23:22 12,1 C 10,6 C 7,3 C 60 % 1026,4 hPa 0,0 l/m 0 min 0 min 0 W/m 3,2 km/h (1 Bft) 97,87 %
30.03.2021 23:24 12,1 C 11,1 C 7,3 C 60 % 1026,5 hPa 0,0 l/m 0 min 0 min 0 W/m 0,0 km/h (0 Bft) 95,74 %
30.03.2021 23:26 12,1 C 10,6 C 7,3 C 61 % 1026,4 hPa 0,0 l/m 0 min 0 min 0 W/m 0,0 km/h (0 Bft) 95,74 %
30.03.2021 23:28 12,0 C 10,6 C 7,3 C 62 % 1026,4 hPa 0,0 l/m 0 min 0 min 0 W/m 0,0 km/h (0 Bft) 97,83 %
30.03.2021 23:30 12,0 C 10,6 C 7,3 C 62 % 1026,5 hPa 0,0 l/m 0 min 0 min 0 W/m 0,0 km/h (0 Bft) 97,87 %
30.03.2021 23:32 12,0 C 10,6 C 7,3 C 62 % 1026,5 hPa 0,0 l/m 0 min 0 min 0 W/m 0,0 km/h (0 Bft) 95,74 %
30.03.2021 23:34 12,0 C 10,6 C 7,3 C 62 % 1026,4 hPa 0,0 l/m 0 min 0 min 0 W/m 0,0 km/h (0 Bft) 97,87 %
30.03.2021 23:36 11,9 C 10,6 C 7,3 C 61 % 1026,4 hPa 0,0 l/m 0 min 0 min 0 W/m 0,0 km/h (0 Bft) 97,87 %
30.03.2021 23:38 11,9 C 10,6 C 7,3 C 62 % 1026,4 hPa 0,0 l/m 0 min 0 min 0 W/m 0,0 km/h (0 Bft) 95,74 %
30.03.2021 23:40 11,9 C 10,6 C 7,3 C 62 % 1026,4 hPa 0,0 l/m 0 min 0 min 0 W/m 0,0 km/h (0 Bft) 97,83 %
30.03.2021 23:42 11,9 C 10,6 C 6,7 C 62 % 1026,4 hPa 0,0 l/m 0 min 0 min 0 W/m 0,0 km/h (0 Bft) 97,87 %
30.03.2021 23:44 11,8 C 10,0 C 7,3 C 62 % 1026,3 hPa 0,0 l/m 0 min 0 min 0 W/m 0,0 km/h (0 Bft) 97,87 %
30.03.2021 23:46 11,8 C 10,0 C 7,3 C 64 % 1026,3 hPa 0,0 l/m 0 min 0 min 0 W/m 0,0 km/h (0 Bft) 100,00 %
30.03.2021 23:48 11,8 C 10,0 C 7,3 C 64 % 1026,3 hPa 0,0 l/m 0 min 0 min 0 W/m 0,0 km/h (0 Bft) 97,87 %
30.03.2021 23:50 11,8 C 10,0 C 7,3 C 64 % 1026,3 hPa 0,0 l/m 0 min 0 min 0 W/m 0,0 km/h (0 Bft) 100,00 %
30.03.2021 23:52 11,7 C 10,0 C 7,3 C 64 % 1026,3 hPa 0,0 l/m 0 min 0 min 0 W/m 0,0 km/h (0 Bft) 100,00 %
30.03.2021 23:54 11,6 C 10,0 C 6,7 C 65 % 1026,3 hPa 0,0 l/m 0 min 0 min 0 W/m 0,0 km/h (0 Bft) 100,00 %
30.03.2021 23:56 11,6 C 10,0 C 6,7 C 65 % 1026,3 hPa 0,0 l/m 0 min 0 min 0 W/m 0,0 km/h (0 Bft) 93,62 %
30.03.2021 23:58 11,6 C 10,0 C 6,7 C 65 % 1026,3 hPa 0,0 l/m 0 min 0 min 0 W/m 0,0 km/h (0 Bft) 97,87 %
_ Min-Zeit 07:32 04:06 04:14 18:24 23:44 - - - - 00:00 08:04
Minimum _ 6,0 C 4,4 C 2,3 C 29 % 1026,3 hPa - - - - 0,0 km/h (0 Bft) 48,78 %
_ Max-Zeit 16:48 16:10 12:24 07:36 10:50 00:00 12:08 00:00 13:44 09:06 00:00
Maximum _ 24,8 C 34,4 C 30,0 C 82 % 1032,4 hPa 0,0 l/m 4 min 0 min 767 W/m 19,3 km/h
SO (3 Bft)
100,00 %
Durchschnitt _ 14,7 C 15,8 C 11,7 C 59 % 1030,1 hPa #0,0 l/m #9:40 h #0 min. 413 W/m 5,7 km/h (1 Bft) 97,30 %
© 2021 W. Hausmann